Wetterdaten: Donnerstag, 31.10.2013
Datum Zeit Temp. Aussen +5cm Feuchte Auss Luftdruck Regen Sonnenschein Regendauer UV Solar Windben
31.10.2013 00:00 6,4 C 5,0 C 90 % 1025,5 hPa 0,0 l/m 0 min 0 min 0,0 UV-I 0 W/m 0,0 km/h (0 Bft)
31.10.2013 00:02 6,4 C 5,0 C 90 % 1025,5 hPa 0,0 l/m 0 min 0 min 0,0 UV-I 0 W/m 0,0 km/h (0 Bft)
31.10.2013 00:06 6,4 C 5,0 C 90 % 1025,4 hPa 0,0 l/m 0 min 0 min 0,0 UV-I 0 W/m 0,0 km/h (0 Bft)
31.10.2013 00:08 6,3 C 5,0 C 90 % 1025,4 hPa 0,0 l/m 0 min 0 min 0,0 UV-I 0 W/m 2,6 km/h (1 Bft)
31.10.2013 00:10 6,3 C 5,0 C 90 % 1025,4 hPa 0,0 l/m 0 min 0 min 0,0 UV-I 0 W/m 5,1 km/h (1 Bft)
31.10.2013 00:12 6,3 C 5,0 C 90 % 1025,5 hPa 0,0 l/m 0 min 0 min 0,0 UV-I 0 W/m 0,0 km/h (0 Bft)
31.10.2013 00:14 6,3 C 4,4 C 90 % 1025,5 hPa 0,0 l/m 0 min 0 min 0,0 UV-I 0 W/m 0,0 km/h (0 Bft)
31.10.2013 00:16 6,2 C 4,4 C 90 % 1025,5 hPa 0,0 l/m 0 min 0 min 0,0 UV-I 0 W/m 2,6 km/h (1 Bft)
31.10.2013 00:18 6,2 C 4,4 C 90 % 1025,5 hPa 0,0 l/m 0 min 0 min 0,0 UV-I 0 W/m 0,0 km/h (0 Bft)
31.10.2013 00:20 6,1 C 4,4 C 90 % 1025,5 hPa 0,0 l/m 0 min 0 min 0,0 UV-I 0 W/m 0,0 km/h (0 Bft)
31.10.2013 00:22 6,1 C 4,4 C 90 % 1025,5 hPa 0,0 l/m 0 min 0 min 0,0 UV-I 0 W/m 0,0 km/h (0 Bft)
31.10.2013 00:24 6,1 C 4,4 C 90 % 1025,4 hPa 0,0 l/m 0 min 0 min 0,0 UV-I 0 W/m 2,6 km/h (1 Bft)
31.10.2013 00:26 6,1 C 4,4 C 91 % 1025,3 hPa 0,0 l/m 0 min 0 min 0,0 UV-I 0 W/m 0,0 km/h (0 Bft)
31.10.2013 00:28 6,1 C 4,4 C 90 % 1025,4 hPa 0,0 l/m 0 min 0 min 0,0 UV-I 0 W/m 0,0 km/h (0 Bft)
31.10.2013 00:30 6,0 C 4,4 C 90 % 1025,4 hPa 0,0 l/m 0 min 0 min 0,0 UV-I 0 W/m 2,6 km/h (1 Bft)
31.10.2013 00:32 5,9 C 4,4 C 91 % 1025,4 hPa 0,0 l/m 0 min 0 min 0,0 UV-I 0 W/m 0,0 km/h (0 Bft)
31.10.2013 00:34 5,9 C 4,4 C 91 % 1025,3 hPa 0,0 l/m 0 min 0 min 0,0 UV-I 0 W/m 0,0 km/h (0 Bft)
31.10.2013 00:36 5,8 C 4,4 C 91 % 1025,4 hPa 0,0 l/m 0 min 0 min 0,0 UV-I 0 W/m 0,0 km/h (0 Bft)
31.10.2013 00:38 5,8 C 4,4 C 91 % 1025,4 hPa 0,0 l/m 0 min 0 min 0,0 UV-I 0 W/m 0,0 km/h (0 Bft)
31.10.2013 00:40 5,7 C 4,4 C 91 % 1025,4 hPa 0,0 l/m 0 min 0 min 0,0 UV-I 0 W/m 0,0 km/h (0 Bft)
31.10.2013 00:42 5,7 C 4,4 C 91 % 1025,3 hPa 0,0 l/m 0 min 0 min 0,0 UV-I 0 W/m 0,0 km/h (0 Bft)
31.10.2013 00:44 5,6 C 4,4 C 91 % 1025,3 hPa 0,0 l/m 0 min 0 min 0,0 UV-I 0 W/m 2,6 km/h (1 Bft)
31.10.2013 00:46 5,6 C 4,4 C 91 % 1025,3 hPa 0,0 l/m 0 min 0 min 0,0 UV-I 0 W/m 0,0 km/h (0 Bft)
31.10.2013 00:48 5,6 C 3,9 C 92 % 1025,4 hPa 0,0 l/m 0 min 0 min 0,0 UV-I 0 W/m 0,0 km/h (0 Bft)
31.10.2013 00:50 5,6 C 3,9 C 92 % 1025,3 hPa 0,0 l/m 0 min 0 min 0,0 UV-I 0 W/m 0,0 km/h (0 Bft)
31.10.2013 00:52 5,6 C 3,9 C 92 % 1025,3 hPa 0,0 l/m 0 min 0 min 0,0 UV-I 0 W/m 0,0 km/h (0 Bft)
31.10.2013 00:54 5,6 C 3,9 C 92 % 1025,3 hPa 0,0 l/m 0 min 0 min 0,0 UV-I 0 W/m 0,0 km/h (0 Bft)
31.10.2013 00:56 5,6 C 3,9 C 92 % 1025,2 hPa 0,0 l/m 0 min 0 min 0,0 UV-I 0 W/m 0,0 km/h (0 Bft)
31.10.2013 00:58 5,6 C 3,9 C 92 % 1025,2 hPa 0,0 l/m 0 min 0 min 0,0 UV-I 0 W/m 0,0 km/h (0 Bft)
31.10.2013 01:00 5,6 C 3,9 C 92 % 1025,2 hPa 0,0 l/m 0 min 0 min 0,0 UV-I 0 W/m 0,0 km/h (0 Bft)
31.10.2013 01:02 5,6 C 4,4 C 92 % 1025,2 hPa 0,0 l/m 0 min 0 min 0,0 UV-I 0 W/m 5,1 km/h (1 Bft)
31.10.2013 01:04 5,7 C 4,4 C 92 % 1025,2 hPa 0,0 l/m 0 min 0 min 0,0 UV-I 0 W/m 0,0 km/h (0 Bft)
31.10.2013 01:06 5,7 C 4,4 C 92 % 1025,3 hPa 0,0 l/m 0 min 0 min 0,0 UV-I 0 W/m 2,6 km/h (1 Bft)
31.10.2013 01:08 5,6 C 3,9 C 92 % 1025,2 hPa 0,0 l/m 0 min 0 min 0,0 UV-I 0 W/m 0,0 km/h (0 Bft)
31.10.2013 01:10 5,6 C 3,9 C 92 % 1025,3 hPa 0,0 l/m 0 min 0 min 0,0 UV-I 0 W/m 0,0 km/h (0 Bft)
31.10.2013 01:12 5,5 C 3,9 C 92 % 1025,2 hPa 0,0 l/m 0 min 0 min 0,0 UV-I 0 W/m 0,0 km/h (0 Bft)
31.10.2013 01:14 5,4 C 3,9 C 92 % 1025,2 hPa 0,0 l/m 0 min 0 min 0,0 UV-I 0 W/m 2,6 km/h (1 Bft)
31.10.2013 01:16 5,4 C 3,9 C 92 % 1025,2 hPa 0,0 l/m 0 min 0 min 0,0 UV-I 0 W/m 0,0 km/h (0 Bft)
31.10.2013 01:18 5,3 C 3,9 C 92 % 1025,2 hPa 0,0 l/m 0 min 0 min 0,0 UV-I 0 W/m 0,0 km/h (0 Bft)
31.10.2013 01:20 5,3 C 3,9 C 92 % 1025,2 hPa 0,0 l/m 0 min 0 min 0,0 UV-I 0 W/m 0,0 km/h (0 Bft)
31.10.2013 01:22 5,2 C 3,9 C 92 % 1025,2 hPa 0,0 l/m 0 min 0 min 0,0 UV-I 0 W/m 0,0 km/h (0 Bft)
31.10.2013 01:24 5,1 C 3,9 C 92 % 1025,2 hPa 0,0 l/m 0 min 0 min 0,0 UV-I 0 W/m 0,0 km/h (0 Bft)
31.10.2013 01:26 5,1 C 3,9 C 92 % 1025,2 hPa 0,0 l/m 0 min 0 min 0,0 UV-I 0 W/m 2,6 km/h (1 Bft)
31.10.2013 01:28 5,0 C 3,9 C 92 % 1025,2 hPa 0,0 l/m 0 min 0 min 0,0 UV-I 0 W/m 0,0 km/h (0 Bft)
31.10.2013 01:30 5,0 C 3,9 C 93 % 1025,2 hPa 0,0 l/m 0 min 0 min 0,0 UV-I 0 W/m 0,0 km/h (0 Bft)
31.10.2013 01:32 4,9 C 3,9 C 93 % 1025,1 hPa 0,0 l/m 0 min 0 min 0,0 UV-I 0 W/m 0,0 km/h (0 Bft)
31.10.2013 01:34 4,9 C 3,3 C 93 % 1025,1 hPa 0,0 l/m 0 min 0 min 0,0 UV-I 0 W/m 2,6 km/h (1 Bft)
31.10.2013 01:36 4,9 C 3,3 C 93 % 1025,1 hPa 0,0 l/m 0 min 0 min 0,0 UV-I 0 W/m 0,0 km/h (0 Bft)
31.10.2013 01:38 4,8 C 3,3 C 93 % 1025,2 hPa 0,0 l/m 0 min 0 min 0,0 UV-I 0 W/m 0,0 km/h (0 Bft)
31.10.2013 01:40 4,8 C 3,3 C 93 % 1025,1 hPa 0,0 l/m 0 min 0 min 0,0 UV-I 0 W/m 0,0 km/h (0 Bft)
31.10.2013 01:42 4,8 C 3,3 C 93 % 1025,2 hPa 0,0 l/m 0 min 0 min 0,0 UV-I 0 W/m 5,1 km/h (1 Bft)
31.10.2013 01:44 4,8 C 3,3 C 93 % 1025,2 hPa 0,0 l/m 0 min 0 min 0,0 UV-I 0 W/m 7,7 km/h (2 Bft)
31.10.2013 01:46 4,8 C 3,3 C 93 % 1025,3 hPa 0,0 l/m 0 min 0 min 0,0 UV-I 0 W/m 7,7 km/h (2 Bft)
31.10.2013 01:48 4,7 C 3,3 C 93 % 1025,3 hPa 0,0 l/m 0 min 0 min 0,0 UV-I 0 W/m 5,1 km/h (1 Bft)
31.10.2013 01:50 4,7 C 3,3 C 93 % 1025,3 hPa 0,0 l/m 0 min 0 min 0,0 UV-I 0 W/m 0,0 km/h (0 Bft)
31.10.2013 01:52 4,7 C 3,3 C 93 % 1025,2 hPa 0,0 l/m 0 min 0 min 0,0 UV-I 0 W/m 7,7 km/h (2 Bft)
31.10.2013 01:54 4,6 C 3,3 C 93 % 1025,2 hPa 0,0 l/m 0 min 0 min 0,0 UV-I 0 W/m 7,7 km/h (2 Bft)
31.10.2013 01:56 4,6 C 3,3 C 93 % 1025,1 hPa 0,0 l/m 0 min 0 min 0,0 UV-I 0 W/m 2,6 km/h (1 Bft)
31.10.2013 01:58 4,6 C 3,3 C 93 % 1025,1 hPa 0,0 l/m 0 min 0 min 0,0 UV-I 0 W/m 0,0 km/h (0 Bft)
31.10.2013 02:00 4,5 C 3,3 C 93 % 1025,1 hPa 0,0 l/m 0 min 0 min 0,0 UV-I 0 W/m 2,6 km/h (1 Bft)
31.10.2013 02:02 4,5 C 3,3 C 94 % 1025,1 hPa 0,0 l/m 0 min 0 min 0,0 UV-I 0 W/m 5,1 km/h (1 Bft)
31.10.2013 02:04 4,4 C 3,3 C 94 % 1025,0 hPa 0,0 l/m 0 min 0 min 0,0 UV-I 0 W/m 0,0 km/h (0 Bft)
31.10.2013 02:06 4,4 C 3,3 C 94 % 1025,0 hPa 0,0 l/m 0 min 0 min 0,0 UV-I 0 W/m 2,6 km/h (1 Bft)
31.10.2013 02:08 4,4 C 3,3 C 94 % 1025,0 hPa 0,0 l/m 0 min 0 min 0,0 UV-I 0 W/m 0,0 km/h (0 Bft)
31.10.2013 02:10 4,4 C 3,3 C 94 % 1025,0 hPa 0,0 l/m 0 min 0 min 0,0 UV-I 0 W/m 5,1 km/h (1 Bft)
31.10.2013 02:12 4,4 C 3,3 C 94 % 1025,1 hPa 0,0 l/m 0 min 0 min 0,0 UV-I 0 W/m 0,0 km/h (0 Bft)
31.10.2013 02:14 4,3 C 3,3 C 94 % 1025,1 hPa 0,0 l/m 0 min 0 min 0,0 UV-I 0 W/m 5,1 km/h (1 Bft)
31.10.2013 02:16 4,3 C 3,3 C 94 % 1025,1 hPa 0,0 l/m 0 min 0 min 0,0 UV-I 0 W/m 7,7 km/h (2 Bft)
31.10.2013 02:18 4,3 C 3,3 C 94 % 1025,1 hPa 0,0 l/m 0 min 0 min 0,0 UV-I 0 W/m 0,0 km/h (0 Bft)
31.10.2013 02:20 4,3 C 3,3 C 94 % 1025,1 hPa 0,0 l/m 0 min 0 min 0,0 UV-I 0 W/m 7,7 km/h (2 Bft)
31.10.2013 02:22 4,2 C 3,3 C 94 % 1025,0 hPa 0,0 l/m 0 min 0 min 0,0 UV-I 0 W/m 2,6 km/h (1 Bft)
31.10.2013 02:24 4,2 C 3,3 C 94 % 1024,9 hPa 0,0 l/m 0 min 0 min 0,0 UV-I 0 W/m 2,6 km/h (1 Bft)
31.10.2013 02:26 4,2 C 3,3 C 94 % 1025,0 hPa 0,0 l/m 0 min 0 min 0,0 UV-I 0 W/m 18,0 km/h (3 Bft)
31.10.2013 02:28 4,2 C 3,3 C 94 % 1024,9 hPa 0,0 l/m 0 min 0 min 0,0 UV-I 0 W/m 2,6 km/h (1 Bft)
31.10.2013 02:30 4,2 C 3,3 C 94 % 1024,9 hPa 0,0 l/m 0 min 0 min 0,0 UV-I 0 W/m 2,6 km/h (1 Bft)
31.10.2013 02:32 4,2 C 3,3 C 94 % 1024,9 hPa 0,0 l/m 0 min 0 min 0,0 UV-I 0 W/m 2,6 km/h (1 Bft)
31.10.2013 02:34 4,2 C 3,3 C 94 % 1024,9 hPa 0,0 l/m 0 min 0 min 0,0 UV-I 0 W/m 10,3 km/h (2 Bft)
31.10.2013 02:36 4,2 C 3,3 C 94 % 1024,9 hPa 0,0 l/m 0 min 0 min 0,0 UV-I 0 W/m 7,7 km/h (2 Bft)
31.10.2013 02:38 4,2 C 3,3 C 94 % 1024,9 hPa 0,0 l/m 0 min 0 min 0,0 UV-I 0 W/m 0,0 km/h (0 Bft)
31.10.2013 02:40 4,2 C 3,3 C 94 % 1024,9 hPa 0,0 l/m 0 min 0 min 0,0 UV-I 0 W/m 7,7 km/h (2 Bft)
31.10.2013 02:42 4,2 C 3,3 C 94 % 1024,9 hPa 0,0 l/m 0 min 0 min 0,0 UV-I 0 W/m 0,0 km/h (0 Bft)
31.10.2013 02:44 4,1 C 2,8 C 94 % 1024,9 hPa 0,0 l/m 0 min 0 min 0,0 UV-I 0 W/m 0,0 km/h (0 Bft)
31.10.2013 02:46 4,1 C 2,8 C 94 % 1024,8 hPa 0,0 l/m 0 min 0 min 0,0 UV-I 0 W/m 2,6 km/h (1 Bft)
31.10.2013 02:48 4,1 C 2,8 C 94 % 1024,8 hPa 0,0 l/m 0 min 0 min 0,0 UV-I 0 W/m 2,6 km/h (1 Bft)
31.10.2013 02:50 4,1 C 2,8 C 95 % 1024,8 hPa 0,0 l/m 0 min 0 min 0,0 UV-I 0 W/m 7,7 km/h (2 Bft)
31.10.2013 02:52 4,1 C 3,3 C 95 % 1024,8 hPa 0,0 l/m 0 min 0 min 0,0 UV-I 0 W/m 12,9 km/h (3 Bft)
31.10.2013 02:54 4,1 C 2,8 C 95 % 1024,8 hPa 0,0 l/m 0 min 0 min 0,0 UV-I 0 W/m 5,1 km/h (1 Bft)
31.10.2013 02:56 4,1 C 2,8 C 95 % 1024,7 hPa 0,0 l/m 0 min 0 min 0,0 UV-I 0 W/m 5,1 km/h (1 Bft)
31.10.2013 02:58 4,1 C 2,8 C 95 % 1024,7 hPa 0,0 l/m 0 min 0 min 0,0 UV-I 0 W/m 0,0 km/h (0 Bft)
31.10.2013 03:00 4,1 C 2,8 C 95 % 1024,7 hPa 0,0 l/m 0 min 0 min 0,0 UV-I 0 W/m 2,6 km/h (1 Bft)
31.10.2013 03:02 4,1 C 2,8 C 95 % 1024,7 hPa 0,0 l/m 0 min 0 min 0,0 UV-I 0 W/m 7,7 km/h (2 Bft)
31.10.2013 03:04 4,0 C 2,8 C 95 % 1024,7 hPa 0,0 l/m 0 min 0 min 0,0 UV-I 0 W/m 0,0 km/h (0 Bft)
31.10.2013 03:06 4,0 C 2,8 C 95 % 1024,6 hPa 0,0 l/m 0 min 0 min 0,0 UV-I 0 W/m 0,0 km/h (0 Bft)
31.10.2013 03:08 4,0 C 2,8 C 95 % 1024,6 hPa 0,0 l/m 0 min 0 min 0,0 UV-I 0 W/m 10,3 km/h (2 Bft)
31.10.2013 03:10 4,0 C 2,8 C 95 % 1024,6 hPa 0,0 l/m 0 min 0 min 0,0 UV-I 0 W/m 7,7 km/h (2 Bft)
31.10.2013 03:12 4,0 C 2,8 C 95 % 1024,6 hPa 0,0 l/m 0 min 0 min 0,0 UV-I 0 W/m 0,0 km/h (0 Bft)
31.10.2013 03:14 4,0 C 2,8 C 95 % 1024,6 hPa 0,0 l/m 0 min 0 min 0,0 UV-I 0 W/m 5,1 km/h (1 Bft)
31.10.2013 03:16 4,0 C 2,8 C 95 % 1024,6 hPa 0,0 l/m 0 min 0 min 0,0 UV-I 0 W/m 10,3 km/h (2 Bft)
31.10.2013 03:18 3,9 C 2,8 C 95 % 1024,6 hPa 0,0 l/m 0 min 0 min 0,0 UV-I 0 W/m 7,7 km/h (2 Bft)
31.10.2013 03:20 3,9 C 2,8 C 95 % 1024,5 hPa 0,0 l/m 0 min 0 min 0,0 UV-I 0 W/m 10,3 km/h (2 Bft)
31.10.2013 03:22 3,9 C 2,8 C 95 % 1024,5 hPa 0,0 l/m 0 min 0 min 0,0 UV-I 0 W/m 7,7 km/h (2 Bft)
31.10.2013 03:24 3,9 C 2,8 C 95 % 1024,5 hPa 0,0 l/m 0 min 0 min 0,0 UV-I 0 W/m 0,0 km/h (0 Bft)
31.10.2013 03:26 3,9 C 2,8 C 95 % 1024,4 hPa 0,0 l/m 0 min 0 min 0,0 UV-I 0 W/m 12,9 km/h (3 Bft)
31.10.2013 03:28 3,9 C 2,8 C 95 % 1024,4 hPa 0,0 l/m 0 min 0 min 0,0 UV-I 0 W/m 7,7 km/h (2 Bft)
31.10.2013 03:30 3,9 C 2,8 C 95 % 1024,5 hPa 0,0 l/m 0 min 0 min 0,0 UV-I 0 W/m 5,1 km/h (1 Bft)
31.10.2013 03:32 3,9 C 2,8 C 95 % 1024,5 hPa 0,0 l/m 0 min 0 min 0,0 UV-I 0 W/m 12,9 km/h (3 Bft)
31.10.2013 03:34 3,9 C 2,8 C 95 % 1024,6 hPa 0,0 l/m 0 min 0 min 0,0 UV-I 0 W/m 7,7 km/h (2 Bft)
31.10.2013 03:36 3,9 C 2,8 C 95 % 1024,5 hPa 0,0 l/m 0 min 0 min 0,0 UV-I 0 W/m 5,1 km/h (1 Bft)
31.10.2013 03:38 3,9 C 2,8 C 95 % 1024,6 hPa 0,0 l/m 0 min 0 min 0,0 UV-I 0 W/m 5,1 km/h (1 Bft)
31.10.2013 03:40 3,9 C 2,8 C 95 % 1024,6 hPa 0,0 l/m 0 min 0 min 0,0 UV-I 0 W/m 7,7 km/h (2 Bft)
31.10.2013 03:42 3,9 C 2,8 C 95 % 1024,5 hPa 0,0 l/m 0 min 0 min 0,0 UV-I 0 W/m 5,1 km/h (1 Bft)
31.10.2013 03:44 3,9 C 2,8 C 95 % 1024,5 hPa 0,0 l/m 0 min 0 min 0,0 UV-I 0 W/m 10,3 km/h (2 Bft)
31.10.2013 03:46 3,8 C 2,8 C 95 % 1024,5 hPa 0,0 l/m 0 min 0 min 0,0 UV-I 0 W/m 0,0 km/h (0 Bft)
31.10.2013 03:48 3,8 C 2,8 C 95 % 1024,6 hPa 0,0 l/m 0 min 0 min 0,0 UV-I 0 W/m 7,7 km/h (2 Bft)
31.10.2013 03:50 3,8 C 2,8 C 95 % 1024,6 hPa 0,0 l/m 0 min 0 min 0,0 UV-I 0 W/m 0,0 km/h (0 Bft)
31.10.2013 03:52 3,8 C 2,8 C 95 % 1024,5 hPa 0,0 l/m 0 min 0 min 0,0 UV-I 0 W/m 7,7 km/h (2 Bft)
31.10.2013 03:54 3,8 C 2,8 C 95 % 1024,5 hPa 0,0 l/m 0 min 0 min 0,0 UV-I 0 W/m 5,1 km/h (1 Bft)
31.10.2013 03:56 3,8 C 2,8 C 95 % 1024,5 hPa 0,0 l/m 0 min 0 min 0,0 UV-I 0 W/m 7,7 km/h (2 Bft)
31.10.2013 03:58 3,8 C 2,8 C 95 % 1024,5 hPa 0,0 l/m 0 min 0 min 0,0 UV-I 0 W/m 2,6 km/h (1 Bft)
31.10.2013 04:00 3,8 C 2,8 C 95 % 1024,4 hPa 0,0 l/m 0 min 0 min 0,0 UV-I 0 W/m 2,6 km/h (1 Bft)
31.10.2013 04:02 3,8 C 2,8 C 95 % 1024,4 hPa 0,0 l/m 0 min 0 min 0,0 UV-I 0 W/m 2,6 km/h (1 Bft)
31.10.2013 04:04 3,7 C 2,8 C 95 % 1024,4 hPa 0,0 l/m 0 min 0 min 0,0 UV-I 0 W/m 7,7 km/h (2 Bft)
31.10.2013 04:06 3,7 C 2,8 C 95 % 1024,4 hPa 0,0 l/m 0 min 0 min 0,0 UV-I 0 W/m 7,7 km/h (2 Bft)
31.10.2013 04:08 3,7 C 2,8 C 95 % 1024,4 hPa 0,0 l/m 0 min 0 min 0,0 UV-I 0 W/m 0,0 km/h (0 Bft)
31.10.2013 04:10 3,7 C 2,8 C 95 % 1024,4 hPa 0,0 l/m 0 min 0 min 0,0 UV-I 0 W/m 0,0 km/h (0 Bft)
31.10.2013 04:12 3,7 C 2,8 C 95 % 1024,4 hPa 0,0 l/m 0 min 0 min 0,0 UV-I 0 W/m 0,0 km/h (0 Bft)
31.10.2013 04:14 3,7 C 2,8 C 95 % 1024,4 hPa 0,0 l/m 0 min 0 min 0,0 UV-I 0 W/m 0,0 km/h (0 Bft)
31.10.2013 04:16 3,7 C 2,8 C 95 % 1024,4 hPa 0,0 l/m 0 min 0 min 0,0 UV-I 0 W/m 0,0 km/h (0 Bft)
31.10.2013 04:18 3,7 C 2,8 C 95 % 1024,4 hPa 0,0 l/m 0 min 0 min 0,0 UV-I 0 W/m 10,3 km/h (2 Bft)
31.10.2013 04:20 3,7 C 2,8 C 95 % 1024,4 hPa 0,0 l/m 0 min 0 min 0,0 UV-I 0 W/m 2,6 km/h (1 Bft)
31.10.2013 04:22 3,7 C 2,8 C 95 % 1024,5 hPa 0,0 l/m 0 min 0 min 0,0 UV-I 0 W/m 0,0 km/h (0 Bft)
31.10.2013 04:24 3,6 C 2,8 C 95 % 1024,4 hPa 0,0 l/m 0 min 0 min 0,0 UV-I 0 W/m 0,0 km/h (0 Bft)
31.10.2013 04:26 3,6 C 2,8 C 96 % 1024,4 hPa 0,0 l/m 0 min 0 min 0,0 UV-I 0 W/m 0,0 km/h (0 Bft)
31.10.2013 04:28 3,6 C 2,8 C 96 % 1024,4 hPa 0,0 l/m 0 min 0 min 0,0 UV-I 0 W/m 0,0 km/h (0 Bft)
31.10.2013 04:30 3,6 C 2,2 C 96 % 1024,4 hPa 0,0 l/m 0 min 0 min 0,0 UV-I 0 W/m 0,0 km/h (0 Bft)
31.10.2013 04:32 3,6 C 2,2 C 96 % 1024,4 hPa 0,0 l/m 0 min 0 min 0,0 UV-I 0 W/m 0,0 km/h (0 Bft)
31.10.2013 04:34 3,6 C 2,8 C 96 % 1024,4 hPa 0,0 l/m 0 min 0 min 0,0 UV-I 0 W/m 2,6 km/h (1 Bft)
31.10.2013 04:36 3,6 C 2,8 C 96 % 1024,5 hPa 0,0 l/m 0 min 0 min 0,0 UV-I 0 W/m 2,6 km/h (1 Bft)
31.10.2013 04:38 3,6 C 2,8 C 96 % 1024,4 hPa 0,0 l/m 0 min 0 min 0,0 UV-I 0 W/m 0,0 km/h (0 Bft)
31.10.2013 04:40 3,6 C 2,8 C 96 % 1024,4 hPa 0,0 l/m 0 min 0 min 0,0 UV-I 0 W/m 7,7 km/h (2 Bft)
31.10.2013 04:42 3,6 C 2,8 C 96 % 1024,4 hPa 0,0 l/m 0 min 0 min 0,0 UV-I 0 W/m 2,6 km/h (1 Bft)
31.10.2013 04:44 3,6 C 2,2 C 96 % 1024,4 hPa 0,0 l/m 0 min 0 min 0,0 UV-I 0 W/m 0,0 km/h (0 Bft)
31.10.2013 04:46 3,6 C 2,8 C 96 % 1024,4 hPa 0,0 l/m 0 min 0 min 0,0 UV-I 0 W/m 0,0 km/h (0 Bft)
31.10.2013 04:48 3,6 C 2,8 C 96 % 1024,5 hPa 0,0 l/m 0 min 0 min 0,0 UV-I 0 W/m 0,0 km/h (0 Bft)
31.10.2013 04:50 3,6 C 2,2 C 96 % 1024,5 hPa 0,0 l/m 0 min 0 min 0,0 UV-I 0 W/m 0,0 km/h (0 Bft)
31.10.2013 04:52 3,6 C 2,8 C 96 % 1024,4 hPa 0,0 l/m 0 min 0 min 0,0 UV-I 0 W/m 2,6 km/h (1 Bft)
31.10.2013 04:54 3,6 C 2,8 C 96 % 1024,4 hPa 0,0 l/m 0 min 0 min 0,0 UV-I 0 W/m 0,0 km/h (0 Bft)
31.10.2013 04:56 3,5 C 2,2 C 96 % 1024,4 hPa 0,0 l/m 0 min 0 min 0,0 UV-I 0 W/m 0,0 km/h (0 Bft)
31.10.2013 04:58 3,5 C 2,2 C 96 % 1024,4 hPa 0,0 l/m 0 min 0 min 0,0 UV-I 0 W/m 0,0 km/h (0 Bft)
31.10.2013 05:00 3,5 C 2,2 C 96 % 1024,3 hPa 0,0 l/m 0 min 0 min 0,0 UV-I 0 W/m 2,6 km/h (1 Bft)
31.10.2013 05:02 3,5 C 2,2 C 96 % 1024,4 hPa 0,0 l/m 0 min 0 min 0,0 UV-I 0 W/m 2,6 km/h (1 Bft)
31.10.2013 05:04 3,5 C 2,2 C 96 % 1024,4 hPa 0,0 l/m 0 min 0 min 0,0 UV-I 0 W/m 0,0 km/h (0 Bft)
31.10.2013 05:06 3,5 C 2,2 C 96 % 1024,4 hPa 0,0 l/m 0 min 0 min 0,0 UV-I 0 W/m 0,0 km/h (0 Bft)
31.10.2013 05:08 3,5 C 2,2 C 96 % 1024,3 hPa 0,0 l/m 0 min 0 min 0,0 UV-I 0 W/m 0,0 km/h (0 Bft)
31.10.2013 05:10 3,4 C 2,2 C 96 % 1024,3 hPa 0,0 l/m 0 min 0 min 0,0 UV-I 0 W/m 0,0 km/h (0 Bft)
31.10.2013 05:12 3,4 C 2,2 C 96 % 1024,4 hPa 0,0 l/m 0 min 0 min 0,0 UV-I 0 W/m 0,0 km/h (0 Bft)
31.10.2013 05:14 3,4 C 2,2 C 96 % 1024,4 hPa 0,0 l/m 0 min 0 min 0,0 UV-I 0 W/m 0,0 km/h (0 Bft)
31.10.2013 05:16 3,4 C 2,2 C 96 % 1024,3 hPa 0,0 l/m 0 min 0 min 0,0 UV-I 0 W/m 0,0 km/h (0 Bft)
31.10.2013 05:18 3,4 C 2,2 C 96 % 1024,3 hPa 0,0 l/m 0 min 0 min 0,0 UV-I 0 W/m 0,0 km/h (0 Bft)
31.10.2013 05:20 3,4 C 2,2 C 96 % 1024,3 hPa 0,0 l/m 0 min 0 min 0,0 UV-I 0 W/m 2,6 km/h (1 Bft)
31.10.2013 05:22 3,4 C 2,2 C 96 % 1024,2 hPa 0,0 l/m 0 min 0 min 0,0 UV-I 0 W/m 0,0 km/h (0 Bft)
31.10.2013 05:24 3,4 C 2,2 C 96 % 1024,3 hPa 0,0 l/m 0 min 0 min 0,0 UV-I 0 W/m 2,6 km/h (1 Bft)
31.10.2013 05:26 3,4 C 2,2 C 96 % 1024,3 hPa 0,0 l/m 0 min 0 min 0,0 UV-I 0 W/m 5,1 km/h (1 Bft)
31.10.2013 05:28 3,4 C 2,2 C 96 % 1024,3 hPa 0,0 l/m 0 min 0 min 0,0 UV-I 0 W/m 10,3 km/h (2 Bft)
31.10.2013 05:30 3,4 C 2,2 C 96 % 1024,3 hPa 0,0 l/m 0 min 0 min 0,0 UV-I 0 W/m 0,0 km/h (0 Bft)
31.10.2013 05:32 3,4 C 2,2 C 96 % 1024,3 hPa 0,0 l/m 0 min 0 min 0,0 UV-I 0 W/m 0,0 km/h (0 Bft)
31.10.2013 05:34 3,4 C 2,2 C 96 % 1024,3 hPa 0,0 l/m 0 min 0 min 0,0 UV-I 0 W/m 5,1 km/h (1 Bft)
31.10.2013 05:36 3,4 C 2,2 C 96 % 1024,3 hPa 0,0 l/m 0 min 0 min 0,0 UV-I 0 W/m 5,1 km/h (1 Bft)
31.10.2013 05:38 3,4 C 2,2 C 96 % 1024,3 hPa 0,0 l/m 0 min 0 min 0,0 UV-I 0 W/m 5,1 km/h (1 Bft)
31.10.2013 05:40 3,4 C 2,2 C 96 % 1024,3 hPa 0,0 l/m 0 min 0 min 0,0 UV-I 0 W/m 2,6 km/h (1 Bft)
31.10.2013 05:42 3,4 C 2,2 C 96 % 1024,3 hPa 0,0 l/m 0 min 0 min 0,0 UV-I 0 W/m 7,7 km/h (2 Bft)
31.10.2013 05:44 3,4 C 2,2 C 96 % 1024,3 hPa 0,0 l/m 0 min 0 min 0,0 UV-I 0 W/m 7,7 km/h (2 Bft)
31.10.2013 05:46 3,4 C 2,2 C 96 % 1024,2 hPa 0,0 l/m 0 min 0 min 0,0 UV-I 0 W/m 2,6 km/h (1 Bft)
31.10.2013 05:48 3,4 C 2,2 C 96 % 1024,2 hPa 0,0 l/m 0 min 0 min 0,0 UV-I 0 W/m 5,1 km/h (1 Bft)
31.10.2013 05:50 3,4 C 2,2 C 96 % 1024,2 hPa 0,0 l/m 0 min 0 min 0,0 UV-I 0 W/m 5,1 km/h (1 Bft)
31.10.2013 05:52 3,4 C 2,2 C 96 % 1024,2 hPa 0,0 l/m 0 min 0 min 0,0 UV-I 0 W/m 12,9 km/h (3 Bft)
31.10.2013 05:54 3,4 C 2,2 C 96 % 1024,2 hPa 0,0 l/m 0 min 0 min 0,0 UV-I 0 W/m 2,6 km/h (1 Bft)
31.10.2013 05:56 3,4 C 2,2 C 96 % 1024,1 hPa 0,0 l/m 0 min 0 min 0,0 UV-I 0 W/m 10,3 km/h (2 Bft)
31.10.2013 05:58 3,4 C 2,2 C 96 % 1024,1 hPa 0,0 l/m 0 min 0 min 0,0 UV-I 0 W/m 0,0 km/h (0 Bft)
31.10.2013 06:00 3,4 C 2,2 C 96 % 1024,1 hPa 0,0 l/m 0 min 0 min 0,0 UV-I 0 W/m 2,6 km/h (1 Bft)
31.10.2013 06:02 3,4 C 2,2 C 96 % 1024,1 hPa 0,0 l/m 0 min 0 min 0,0 UV-I 0 W/m 7,7 km/h (2 Bft)
31.10.2013 06:06 3,4 C 2,2 C 96 % 1024,0 hPa 0,0 l/m 0 min 0 min 0,0 UV-I 0 W/m 12,9 km/h (3 Bft)
31.10.2013 06:08 3,4 C 2,2 C 96 % 1024,0 hPa 0,0 l/m 0 min 0 min 0,0 UV-I 0 W/m 0,0 km/h (0 Bft)
31.10.2013 06:10 3,4 C 2,2 C 96 % 1024,0 hPa 0,0 l/m 0 min 0 min 0,0 UV-I 0 W/m 10,3 km/h (2 Bft)
31.10.2013 06:12 3,4 C 2,2 C 96 % 1024,0 hPa 0,0 l/m 0 min 0 min 0,0 UV-I 0 W/m 7,7 km/h (2 Bft)
31.10.2013 06:14 3,4 C 2,2 C 96 % 1024,0 hPa 0,0 l/m 0 min 0 min 0,0 UV-I 0 W/m 5,1 km/h (1 Bft)
31.10.2013 06:16 3,4 C 2,2 C 96 % 1024,0 hPa 0,0 l/m 0 min 0 min 0,0 UV-I 0 W/m 7,7 km/h (2 Bft)
31.10.2013 06:18 3,4 C 2,2 C 96 % 1024,0 hPa 0,0 l/m 0 min 0 min 0,0 UV-I 0 W/m 7,7 km/h (2 Bft)
31.10.2013 06:20 3,4 C 2,2 C 96 % 1024,1 hPa 0,0 l/m 0 min 0 min 0,0 UV-I 0 W/m 12,9 km/h (3 Bft)
31.10.2013 06:22 3,4 C 2,2 C 97 % 1024,0 hPa 0,0 l/m 0 min 0 min 0,0 UV-I 0 W/m 7,7 km/h (2 Bft)
31.10.2013 06:24 3,4 C 2,2 C 97 % 1024,0 hPa 0,0 l/m 0 min 0 min 0,0 UV-I 0 W/m 7,7 km/h (2 Bft)
31.10.2013 06:26 3,4 C 2,2 C 97 % 1023,9 hPa 0,0 l/m 0 min 0 min 0,0 UV-I 0 W/m 2,6 km/h (1 Bft)
31.10.2013 06:28 3,4 C 2,2 C 97 % 1024,0 hPa 0,0 l/m 0 min 0 min 0,0 UV-I 0 W/m 0,0 km/h (0 Bft)
31.10.2013 06:30 3,4 C 2,2 C 97 % 1024,0 hPa 0,0 l/m 0 min 0 min 0,0 UV-I 0 W/m 10,3 km/h (2 Bft)
31.10.2013 06:32 3,4 C 2,2 C 97 % 1024,0 hPa 0,0 l/m 0 min 0 min 0,0 UV-I 0 W/m 2,6 km/h (1 Bft)
31.10.2013 06:34 3,4 C 2,2 C 97 % 1024,0 hPa 0,0 l/m 0 min 0 min 0,0 UV-I 0 W/m 5,1 km/h (1 Bft)
31.10.2013 06:36 3,4 C 2,2 C 97 % 1024,1 hPa 0,0 l/m 0 min 0 min 0,0 UV-I 0 W/m 7,7 km/h (2 Bft)
31.10.2013 06:38 3,3 C 2,2 C 97 % 1024,0 hPa 0,0 l/m 0 min 0 min 0,0 UV-I 0 W/m 0,0 km/h (0 Bft)
31.10.2013 06:40 3,4 C 2,2 C 97 % 1024,0 hPa 0,0 l/m 0 min 0 min 0,0 UV-I 0 W/m 7,7 km/h (2 Bft)
31.10.2013 06:42 3,4 C 2,2 C 97 % 1024,0 hPa 0,0 l/m 0 min 0 min 0,0 UV-I 0 W/m 5,1 km/h (1 Bft)
31.10.2013 06:44 3,3 C 2,2 C 97 % 1024,0 hPa 0,0 l/m 0 min 0 min 0,0 UV-I 0 W/m 2,6 km/h (1 Bft)
31.10.2013 06:46 3,3 C 2,2 C 97 % 1024,0 hPa 0,0 l/m 0 min 0 min 0,0 UV-I 0 W/m 0,0 km/h (0 Bft)
31.10.2013 06:48 3,3 C 2,2 C 97 % 1024,0 hPa 0,0 l/m 0 min 0 min 0,0 UV-I 0 W/m 5,1 km/h (1 Bft)
31.10.2013 06:50 3,3 C 2,2 C 97 % 1024,0 hPa 0,0 l/m 0 min 0 min 0,0 UV-I 0 W/m 7,7 km/h (2 Bft)
31.10.2013 06:52 3,3 C 2,2 C 97 % 1024,0 hPa 0,0 l/m 0 min 0 min 0,0 UV-I 0 W/m 5,1 km/h (1 Bft)
31.10.2013 06:54 3,3 C 2,2 C 96 % 1024,0 hPa 0,0 l/m 0 min 0 min 0,0 UV-I 0 W/m 5,1 km/h (1 Bft)
31.10.2013 06:56 3,3 C 2,2 C 96 % 1024,0 hPa 0,0 l/m 0 min 0 min 0,0 UV-I 0 W/m 7,7 km/h (2 Bft)
31.10.2013 06:58 3,3 C 2,2 C 96 % 1024,0 hPa 0,0 l/m 0 min 0 min 0,0 UV-I 0 W/m 7,7 km/h (2 Bft)
31.10.2013 07:00 3,3 C 2,2 C 96 % 1024,0 hPa 0,0 l/m 0 min 0 min 0,0 UV-I 0 W/m 0,0 km/h (0 Bft)
31.10.2013 07:02 3,3 C 2,2 C 96 % 1024,0 hPa 0,0 l/m 0 min 0 min 0,0 UV-I 0 W/m 10,3 km/h (2 Bft)
31.10.2013 07:04 3,3 C 2,2 C 96 % 1024,1 hPa 0,0 l/m 0 min 0 min 0,0 UV-I 0 W/m 10,3 km/h (2 Bft)
31.10.2013 07:06 3,3 C 2,2 C 96 % 1024,0 hPa 0,0 l/m 0 min 0 min 0,0 UV-I 0 W/m 10,3 km/h (2 Bft)
31.10.2013 07:08 3,3 C 2,2 C 96 % 1024,0 hPa 0,0 l/m 0 min 0 min 0,0 UV-I 0 W/m 10,3 km/h (2 Bft)
31.10.2013 07:10 3,3 C 2,2 C 97 % 1024,0 hPa 0,0 l/m 0 min 0 min 0,0 UV-I 0 W/m 5,1 km/h (1 Bft)
31.10.2013 07:12 3,3 C 2,2 C 97 % 1024,0 hPa 0,0 l/m 0 min 0 min 0,0 UV-I 0 W/m 10,3 km/h (2 Bft)
31.10.2013 07:14 3,3 C 2,2 C 97 % 1024,0 hPa 0,0 l/m 0 min 0 min 0,0 UV-I 5 W/m 10,3 km/h (2 Bft)
31.10.2013 07:16 3,3 C 2,2 C 97 % 1024,0 hPa 0,0 l/m 0 min 0 min 0,0 UV-I 5 W/m 5,1 km/h (1 Bft)
31.10.2013 07:18 3,3 C 2,2 C 97 % 1024,0 hPa 0,0 l/m 0 min 0 min 0,0 UV-I 5 W/m 0,0 km/h (0 Bft)
31.10.2013 07:20 3,3 C 2,2 C 97 % 1024,0 hPa 0,0 l/m 0 min 0 min 0,0 UV-I 5 W/m 2,6 km/h (1 Bft)
31.10.2013 07:22 3,3 C 2,2 C 97 % 1023,9 hPa 0,0 l/m 0 min 0 min 0,0 UV-I 7 W/m 10,3 km/h (2 Bft)
31.10.2013 07:24 3,3 C 2,2 C 97 % 1023,9 hPa 0,0 l/m 0 min 0 min 0,0 UV-I 7 W/m 12,9 km/h (3 Bft)
31.10.2013 07:26 3,3 C 2,2 C 97 % 1024,0 hPa 0,0 l/m 0 min 0 min 0,0 UV-I 9 W/m 10,3 km/h (2 Bft)
31.10.2013 07:28 3,3 C 2,2 C 97 % 1024,0 hPa 0,0 l/m 0 min 0 min 0,0 UV-I 9 W/m 2,6 km/h (1 Bft)
31.10.2013 07:30 3,3 C 2,2 C 97 % 1023,9 hPa 0,0 l/m 0 min 0 min 0,0 UV-I 9 W/m 5,1 km/h (1 Bft)
31.10.2013 07:32 3,3 C 2,2 C 97 % 1024,0 hPa 0,0 l/m 0 min 0 min 0,0 UV-I 9 W/m 7,7 km/h (2 Bft)
31.10.2013 07:34 3,3 C 2,2 C 97 % 1024,0 hPa 0,0 l/m 0 min 0 min 0,0 UV-I 11 W/m 10,3 km/h (2 Bft)
31.10.2013 07:36 3,3 C 2,2 C 97 % 1024,0 hPa 0,0 l/m 0 min 0 min 0,0 UV-I 12 W/m 10,3 km/h (2 Bft)
31.10.2013 07:38 3,3 C 2,2 C 97 % 1024,0 hPa 0,0 l/m 0 min 0 min 0,0 UV-I 14 W/m 10,3 km/h (2 Bft)
31.10.2013 07:40 3,3 C 2,2 C 97 % 1024,0 hPa 0,0 l/m 0 min 0 min 0,0 UV-I 16 W/m 7,7 km/h (2 Bft)
31.10.2013 07:42 3,4 C 2,2 C 97 % 1024,0 hPa 0,0 l/m 0 min 0 min 0,0 UV-I 18 W/m 7,7 km/h (2 Bft)
31.10.2013 07:44 3,4 C 2,8 C 97 % 1024,1 hPa 0,0 l/m 0 min 0 min 0,0 UV-I 19 W/m 5,1 km/h (1 Bft)
31.10.2013 07:46 3,4 C 2,8 C 97 % 1024,1 hPa 0,0 l/m 0 min 0 min 0,0 UV-I 21 W/m 10,3 km/h (2 Bft)
31.10.2013 07:48 3,4 C 2,8 C 97 % 1024,1 hPa 0,0 l/m 0 min 0 min 0,0 UV-I 23 W/m 12,9 km/h (3 Bft)
31.10.2013 07:50 3,4 C 2,8 C 97 % 1024,1 hPa 0,0 l/m 0 min 0 min 0,0 UV-I 23 W/m 5,1 km/h (1 Bft)
31.10.2013 07:52 3,5 C 2,8 C 97 % 1024,1 hPa 0,0 l/m 0 min 0 min 0,0 UV-I 25 W/m 0,0 km/h (0 Bft)
31.10.2013 07:54 3,5 C 2,8 C 97 % 1024,1 hPa 0,0 l/m 0 min 0 min 0,0 UV-I 26 W/m 5,1 km/h (1 Bft)
31.10.2013 07:56 3,5 C 2,8 C 97 % 1024,1 hPa 0,0 l/m 0 min 0 min 0,0 UV-I 26 W/m 7,7 km/h (2 Bft)
31.10.2013 07:58 3,5 C 2,8 C 97 % 1024,2 hPa 0,0 l/m 0 min 0 min 0,0 UV-I 28 W/m 10,3 km/h (2 Bft)
31.10.2013 08:00 3,6 C 2,8 C 97 % 1024,1 hPa 0,0 l/m 0 min 0 min 0,0 UV-I 30 W/m 15,4 km/h (3 Bft)
31.10.2013 08:02 3,6 C 2,8 C 97 % 1024,1 hPa 0,0 l/m 0 min 0 min 0,0 UV-I 30 W/m 5,1 km/h (1 Bft)
31.10.2013 08:04 3,6 C 2,8 C 97 % 1024,1 hPa 0,0 l/m 0 min 0 min 0,0 UV-I 32 W/m 0,0 km/h (0 Bft)
31.10.2013 08:06 3,7 C 2,8 C 97 % 1024,1 hPa 0,0 l/m 0 min 0 min 0,0 UV-I 33 W/m 7,7 km/h (2 Bft)
31.10.2013 08:08 3,7 C 2,8 C 97 % 1024,0 hPa 0,0 l/m 0 min 0 min 0,0 UV-I 33 W/m 10,3 km/h (2 Bft)
31.10.2013 08:10 3,7 C 2,8 C 97 % 1024,1 hPa 0,0 l/m 0 min 0 min 0,0 UV-I 35 W/m 7,7 km/h (2 Bft)
31.10.2013 08:12 3,7 C 2,8 C 97 % 1024,1 hPa 0,0 l/m 0 min 0 min 0,0 UV-I 35 W/m 10,3 km/h (2 Bft)
31.10.2013 08:14 3,8 C 2,8 C 97 % 1024,0 hPa 0,0 l/m 0 min 0 min 0,0 UV-I 35 W/m 12,9 km/h (3 Bft)
31.10.2013 08:16 3,8 C 3,3 C 97 % 1024,1 hPa 0,0 l/m 0 min 0 min 0,0 UV-I 35 W/m 7,7 km/h (2 Bft)
31.10.2013 08:18 3,9 C 3,3 C 97 % 1024,1 hPa 0,0 l/m 0 min 0 min 0,0 UV-I 35 W/m 7,7 km/h (2 Bft)
31.10.2013 08:20 3,9 C 3,3 C 97 % 1024,1 hPa 0,0 l/m 0 min 0 min 0,0 UV-I 37 W/m 7,7 km/h (2 Bft)
31.10.2013 08:22 3,9 C 3,3 C 97 % 1024,1 hPa 0,0 l/m 0 min 0 min 0,0 UV-I 39 W/m 7,7 km/h (2 Bft)
31.10.2013 08:24 4,0 C 3,3 C 97 % 1024,1 hPa 0,0 l/m 0 min 0 min 0,0 UV-I 39 W/m 12,9 km/h (3 Bft)
31.10.2013 08:26 4,0 C 3,3 C 97 % 1024,1 hPa 0,0 l/m 0 min 0 min 0,0 UV-I 40 W/m 7,7 km/h (2 Bft)
31.10.2013 08:28 4,1 C 3,3 C 97 % 1024,1 hPa 0,0 l/m 0 min 0 min 0,0 UV-I 42 W/m 10,3 km/h (2 Bft)
31.10.2013 08:30 4,1 C 3,3 C 97 % 1024,1 hPa 0,0 l/m 0 min 0 min 0,0 UV-I 44 W/m 2,6 km/h (1 Bft)
31.10.2013 08:32 4,2 C 3,3 C 100 % 1024,1 hPa 0,0 l/m 0 min 0 min 0,0 UV-I 44 W/m 5,1 km/h (1 Bft)
31.10.2013 08:34 4,2 C 3,3 C 97 % 1024,0 hPa 0,0 l/m 0 min 0 min 0,0 UV-I 44 W/m 5,1 km/h (1 Bft)
31.10.2013 08:36 4,3 C 3,9 C 97 % 1024,1 hPa 0,0 l/m 0 min 0 min 0,0 UV-I 44 W/m 7,7 km/h (2 Bft)
31.10.2013 08:38 4,3 C 3,9 C 97 % 1024,1 hPa 0,0 l/m 0 min 0 min 0,0 UV-I 46 W/m 5,1 km/h (1 Bft)
31.10.2013 08:40 4,4 C 3,9 C 97 % 1024,1 hPa 0,0 l/m 0 min 0 min 0,0 UV-I 47 W/m 5,1 km/h (1 Bft)
31.10.2013 08:42 4,5 C 3,9 C 97 % 1024,1 hPa 0,0 l/m 0 min 0 min 0,0 UV-I 49 W/m 0,0 km/h (0 Bft)
31.10.2013 08:44 4,6 C 3,9 C 97 % 1024,1 hPa 0,0 l/m 0 min 0 min 0,0 UV-I 51 W/m 2,6 km/h (1 Bft)
31.10.2013 08:46 4,7 C 3,9 C 97 % 1024,1 hPa 0,0 l/m 0 min 0 min 0,0 UV-I 63 W/m 2,6 km/h (1 Bft)
31.10.2013 08:48 4,7 C 3,9 C 97 % 1024,1 hPa 0,0 l/m 2 min 0 min 0,0 UV-I 107 W/m 7,7 km/h (2 Bft)
31.10.2013 08:50 4,7 C 3,9 C 97 % 1024,0 hPa 0,0 l/m 2 min 0 min 0,0 UV-I 132 W/m 2,6 km/h (1 Bft)
31.10.2013 08:52 4,8 C 4,4 C 97 % 1024,0 hPa 0,0 l/m 2 min 0 min 0,0 UV-I 135 W/m 5,1 km/h (1 Bft)
31.10.2013 08:54 4,9 C 4,4 C 97 % 1024,0 hPa 0,0 l/m 2 min 0 min 0,0 UV-I 139 W/m 7,7 km/h (2 Bft)
31.10.2013 08:56 5,1 C 4,4 C 97 % 1024,0 hPa 0,0 l/m 2 min 0 min 0,0 UV-I 142 W/m 2,6 km/h (1 Bft)
31.10.2013 08:58 5,2 C 4,4 C 97 % 1023,9 hPa 0,0 l/m 2 min 0 min 0,0 UV-I 148 W/m 0,0 km/h (0 Bft)
31.10.2013 09:00 5,2 C 4,4 C 97 % 1023,9 hPa 0,0 l/m 2 min 0 min 0,0 UV-I 151 W/m 10,3 km/h (2 Bft)
31.10.2013 09:02 5,4 C 4,4 C 97 % 1024,0 hPa 0,0 l/m 2 min 0 min 0,0 UV-I 155 W/m 2,6 km/h (1 Bft)
31.10.2013 09:04 5,5 C 5,0 C 97 % 1024,1 hPa 0,0 l/m 2 min 0 min 0,0 UV-I 160 W/m 10,3 km/h (2 Bft)
31.10.2013 09:06 5,6 C 5,0 C 97 % 1024,1 hPa 0,0 l/m 2 min 0 min 0,0 UV-I 163 W/m 7,7 km/h (2 Bft)
31.10.2013 09:08 5,7 C 5,0 C 97 % 1024,0 hPa 0,0 l/m 2 min 0 min 0,0 UV-I 167 W/m 2,6 km/h (1 Bft)
31.10.2013 09:10 5,9 C 5,0 C 97 % 1024,0 hPa 0,0 l/m 2 min 0 min 0,0 UV-I 172 W/m 5,1 km/h (1 Bft)
31.10.2013 09:12 6,1 C 5,0 C 96 % 1024,0 hPa 0,0 l/m 2 min 0 min 0,0 UV-I 176 W/m 7,7 km/h (2 Bft)
31.10.2013 09:14 6,2 C 5,0 C 96 % 1024,0 hPa 0,0 l/m 2 min 0 min 0,0 UV-I 179 W/m 10,3 km/h (2 Bft)
31.10.2013 09:16 6,4 C 5,6 C 96 % 1024,0 hPa 0,0 l/m 2 min 0 min 0,0 UV-I 185 W/m 10,3 km/h (2 Bft)
31.10.2013 09:18 6,6 C 5,6 C 96 % 1024,0 hPa 0,0 l/m 2 min 0 min 0,0 UV-I 188 W/m 7,7 km/h (2 Bft)
31.10.2013 09:20 6,7 C 5,6 C 96 % 1024,0 hPa 0,0 l/m 2 min 0 min 0,0 UV-I 188 W/m 10,3 km/h (2 Bft)
31.10.2013 09:22 6,9 C 5,6 C 96 % 1024,1 hPa 0,0 l/m 2 min 0 min 0,0 UV-I 199 W/m 7,7 km/h (2 Bft)
31.10.2013 09:24 7,0 C 6,1 C 95 % 1024,0 hPa 0,0 l/m 2 min 0 min 0,0 UV-I 202 W/m 12,9 km/h (3 Bft)
31.10.2013 09:26 7,2 C 6,1 C 95 % 1023,9 hPa 0,0 l/m 2 min 0 min 0,0 UV-I 207 W/m 12,9 km/h (3 Bft)
31.10.2013 09:28 7,3 C 6,1 C 94 % 1023,8 hPa 0,0 l/m 2 min 0 min 0,0 UV-I 214 W/m 15,4 km/h (3 Bft)
31.10.2013 09:30 7,5 C 6,1 C 93 % 1023,9 hPa 0,0 l/m 2 min 0 min 0,0 UV-I 218 W/m 7,7 km/h (2 Bft)
31.10.2013 09:32 7,7 C 6,7 C 93 % 1023,9 hPa 0,0 l/m 2 min 0 min 0,0 UV-I 223 W/m 18,0 km/h (3 Bft)
31.10.2013 09:34 7,8 C 6,7 C 93 % 1023,9 hPa 0,0 l/m 2 min 0 min 0,0 UV-I 230 W/m 12,9 km/h (3 Bft)
31.10.2013 09:36 7,9 C 6,7 C 92 % 1023,9 hPa 0,0 l/m 2 min 0 min 0,0 UV-I 236 W/m 15,4 km/h (3 Bft)
31.10.2013 09:38 8,1 C 6,7 C 91 % 1023,9 hPa 0,0 l/m 2 min 0 min 0,0 UV-I 241 W/m 12,9 km/h (3 Bft)
31.10.2013 09:40 8,2 C 7,2 C 90 % 1023,8 hPa 0,0 l/m 2 min 0 min 0,0 UV-I 248 W/m 5,1 km/h (1 Bft)
31.10.2013 09:42 8,4 C 7,2 C 90 % 1023,8 hPa 0,0 l/m 2 min 0 min 0,0 UV-I 243 W/m 12,9 km/h (3 Bft)
31.10.2013 09:44 8,6 C 7,2 C 89 % 1023,8 hPa 0,0 l/m 2 min 0 min 0,0 UV-I 209 W/m 15,4 km/h (3 Bft)
31.10.2013 09:46 8,6 C 7,2 C 88 % 1023,7 hPa 0,0 l/m 2 min 0 min 0,0 UV-I 207 W/m 20,6 km/h (4 Bft)
31.10.2013 09:48 8,7 C 7,2 C 88 % 1023,7 hPa 0,0 l/m 2 min 0 min 0,0 UV-I 183 W/m 10,3 km/h (2 Bft)
31.10.2013 09:50 8,7 C 7,2 C 88 % 1023,7 hPa 0,0 l/m 2 min 0 min 0,0 UV-I 193 W/m 15,4 km/h (3 Bft)
31.10.2013 09:52 8,8 C 7,2 C 87 % 1023,7 hPa 0,0 l/m 0 min 0 min 0,0 UV-I 153 W/m 15,4 km/h (3 Bft)
31.10.2013 09:54 8,8 C 7,2 C 87 % 1023,7 hPa 0,0 l/m 0 min 0 min 0,0 UV-I 149 W/m 20,6 km/h (4 Bft)
31.10.2013 09:56 8,8 C 7,2 C 87 % 1023,7 hPa 0,0 l/m 0 min 0 min 0,0 UV-I 162 W/m 7,7 km/h (2 Bft)
31.10.2013 09:58 8,8 C 7,2 C 87 % 1023,7 hPa 0,0 l/m 2 min 0 min 0,0 UV-I 181 W/m 10,3 km/h (2 Bft)
31.10.2013 10:00 8,9 C 7,8 C 86 % 1023,7 hPa 0,0 l/m 2 min 0 min 0,0 UV-I 174 W/m 2,6 km/h (1 Bft)
31.10.2013 10:02 9,1 C 7,8 C 86 % 1023,7 hPa 0,0 l/m 2 min 0 min 0,0 UV-I 197 W/m 0,0 km/h (0 Bft)
31.10.2013 10:04 9,2 C 7,8 C 86 % 1023,6 hPa 0,0 l/m 2 min 0 min 0,0 UV-I 241 W/m 2,6 km/h (1 Bft)
31.10.2013 10:06 9,3 C 7,8 C 86 % 1023,7 hPa 0,0 l/m 2 min 0 min 0,0 UV-I 292 W/m 10,3 km/h (2 Bft)
31.10.2013 10:08 9,5 C 7,8 C 86 % 1023,7 hPa 0,0 l/m 2 min 0 min 0,0 UV-I 190 W/m 7,7 km/h (2 Bft)
31.10.2013 10:10 9,7 C 8,3 C 85 % 1023,7 hPa 0,0 l/m 2 min 0 min 0,0 UV-I 186 W/m 15,4 km/h (3 Bft)
31.10.2013 10:12 9,7 C 8,3 C 84 % 1023,7 hPa 0,0 l/m 2 min 0 min 0,0 UV-I 292 W/m 23,2 km/h (4 Bft)
31.10.2013 10:14 9,8 C 8,3 C 84 % 1023,8 hPa 0,0 l/m 2 min 0 min 0,0 UV-I 269 W/m 12,9 km/h (3 Bft)
31.10.2013 10:16 9,9 C 8,3 C 83 % 1023,7 hPa 0,0 l/m 2 min 0 min 0,0 UV-I 241 W/m 18,0 km/h (3 Bft)
31.10.2013 10:18 9,9 C 8,3 C 83 % 1023,7 hPa 0,0 l/m 2 min 0 min 0,0 UV-I 244 W/m 15,4 km/h (3 Bft)
31.10.2013 10:20 10,1 C 8,9 C 83 % 1023,7 hPa 0,0 l/m 2 min 0 min 0,0 UV-I 276 W/m 15,4 km/h (3 Bft)
31.10.2013 10:22 10,1 C 8,9 C 83 % 1023,7 hPa 0,0 l/m 2 min 0 min 0,0 UV-I 257 W/m 7,7 km/h (2 Bft)
31.10.2013 10:24 10,2 C 8,9 C 82 % 1023,6 hPa 0,0 l/m 2 min 0 min 0,0 UV-I 230 W/m 12,9 km/h (3 Bft)
31.10.2013 10:26 10,3 C 8,9 C 82 % 1023,6 hPa 0,0 l/m 2 min 0 min 0,0 UV-I 230 W/m 10,3 km/h (2 Bft)
31.10.2013 10:28 10,3 C 8,9 C 82 % 1023,6 hPa 0,0 l/m 2 min 0 min 0,0 UV-I 209 W/m 10,3 km/h (2 Bft)
31.10.2013 10:30 10,3 C 8,9 C 82 % 1023,6 hPa 0,0 l/m 2 min 0 min 0,0 UV-I 206 W/m 15,4 km/h (3 Bft)
31.10.2013 10:32 10,3 C 8,9 C 82 % 1023,6 hPa 0,0 l/m 2 min 0 min 0,0 UV-I 202 W/m 0,0 km/h (0 Bft)
31.10.2013 10:34 10,3 C 8,9 C 82 % 1023,6 hPa 0,0 l/m 0 min 0 min 0,0 UV-I 190 W/m 10,3 km/h (2 Bft)
31.10.2013 10:36 10,4 C 8,9 C 82 % 1023,5 hPa 0,0 l/m 2 min 0 min 0,0 UV-I 229 W/m 7,7 km/h (2 Bft)
31.10.2013 10:38 10,4 C 8,9 C 82 % 1023,6 hPa 0,0 l/m 0 min 0 min 0,0 UV-I 139 W/m 10,3 km/h (2 Bft)
31.10.2013 10:40 10,4 C 8,9 C 82 % 1023,6 hPa 0,0 l/m 0 min 0 min 0,0 UV-I 167 W/m 12,9 km/h (3 Bft)
31.10.2013 10:42 10,4 C 8,9 C 82 % 1023,6 hPa 0,0 l/m 2 min 0 min 0,0 UV-I 255 W/m 18,0 km/h (3 Bft)
31.10.2013 10:44 10,4 C 8,9 C 82 % 1023,6 hPa 0,0 l/m 2 min 0 min 0,0 UV-I 251 W/m 18,0 km/h (3 Bft)
31.10.2013 10:46 10,5 C 8,9 C 81 % 1023,6 hPa 0,0 l/m 2 min 0 min 0,0 UV-I 243 W/m 18,0 km/h (3 Bft)
31.10.2013 10:48 10,6 C 8,9 C 81 % 1023,5 hPa 0,0 l/m 2 min 0 min 0,0 UV-I 230 W/m 15,4 km/h (3 Bft)
31.10.2013 10:50 10,6 C 9,4 C 82 % 1023,5 hPa 0,0 l/m 2 min 0 min 0,0 UV-I 285 W/m 12,9 km/h (3 Bft)
31.10.2013 10:52 10,7 C 9,4 C 81 % 1023,5 hPa 0,0 l/m 2 min 0 min 0,5 UV-I 346 W/m 10,3 km/h (2 Bft)
31.10.2013 10:54 10,8 C 9,4 C 81 % 1023,4 hPa 0,0 l/m 2 min 0 min 0,5 UV-I 350 W/m 10,3 km/h (2 Bft)
31.10.2013 10:56 11,1 C 9,4 C 81 % 1023,3 hPa 0,0 l/m 2 min 0 min 0,5 UV-I 374 W/m 2,6 km/h (1 Bft)
31.10.2013 10:58 11,3 C 10,0 C 81 % 1023,4 hPa 0,0 l/m 2 min 0 min 0,5 UV-I 378 W/m 2,6 km/h (1 Bft)
31.10.2013 11:00 11,4 C 10,0 C 80 % 1023,4 hPa 0,0 l/m 2 min 0 min 0,5 UV-I 299 W/m 10,3 km/h (2 Bft)
31.10.2013 11:02 11,6 C 10,0 C 79 % 1023,4 hPa 0,0 l/m 2 min 0 min 0,5 UV-I 392 W/m 12,9 km/h (3 Bft)
31.10.2013 11:04 11,6 C 10,0 C 79 % 1023,4 hPa 0,0 l/m 2 min 0 min 0,0 UV-I 248 W/m 12,9 km/h (3 Bft)
31.10.2013 11:06 11,6 C 10,0 C 78 % 1023,3 hPa 0,0 l/m 0 min 0 min 0,0 UV-I 197 W/m 15,4 km/h (3 Bft)
31.10.2013 11:08 11,5 C 10,0 C 78 % 1023,3 hPa 0,0 l/m 0 min 0 min 0,0 UV-I 195 W/m 28,3 km/h (4 Bft)
31.10.2013 11:10 11,4 C 10,0 C 78 % 1023,3 hPa 0,0 l/m 0 min 0 min 0,0 UV-I 207 W/m 18,0 km/h (3 Bft)
31.10.2013 11:12 11,3 C 10,0 C 78 % 1023,2 hPa 0,0 l/m 0 min 0 min 0,0 UV-I 185 W/m 20,6 km/h (4 Bft)
31.10.2013 11:14 11,3 C 10,0 C 78 % 1023,3 hPa 0,0 l/m 2 min 0 min 0,5 UV-I 279 W/m 18,0 km/h (3 Bft)
31.10.2013 11:16 11,4 C 10,0 C 79 % 1023,3 hPa 0,0 l/m 2 min 0 min 0,5 UV-I 338 W/m 12,9 km/h (3 Bft)
31.10.2013 11:18 11,4 C 10,0 C 78 % 1023,3 hPa 0,0 l/m 2 min 0 min 0,0 UV-I 225 W/m 7,7 km/h (2 Bft)
31.10.2013 11:20 11,6 C 10,0 C 78 % 1023,3 hPa 0,0 l/m 2 min 0 min 0,0 UV-I 255 W/m 5,1 km/h (1 Bft)
31.10.2013 11:22 11,7 C 10,0 C 78 % 1023,2 hPa 0,0 l/m 2 min 0 min 0,0 UV-I 260 W/m 12,9 km/h (3 Bft)
31.10.2013 11:24 11,7 C 10,0 C 78 % 1023,2 hPa 0,0 l/m 0 min 0 min 0,0 UV-I 188 W/m 7,7 km/h (2 Bft)
31.10.2013 11:26 11,7 C 10,0 C 78 % 1023,2 hPa 0,0 l/m 0 min 0 min 0,0 UV-I 151 W/m 20,6 km/h (4 Bft)
31.10.2013 11:28 11,7 C 10,0 C 77 % 1023,2 hPa 0,0 l/m 2 min 0 min 0,0 UV-I 318 W/m 18,0 km/h (3 Bft)
31.10.2013 11:30 11,7 C 10,6 C 77 % 1023,2 hPa 0,0 l/m 2 min 0 min 0,0 UV-I 413 W/m 23,2 km/h (4 Bft)
31.10.2013 11:32 11,9 C 10,6 C 77 % 1023,0 hPa 0,0 l/m 2 min 0 min 0,0 UV-I 436 W/m 12,9 km/h (3 Bft)
31.10.2013 11:34 12,1 C 10,6 C 76 % 1023,0 hPa 0,0 l/m 2 min 0 min 0,0 UV-I 369 W/m 12,9 km/h (3 Bft)
31.10.2013 11:36 12,1 C 10,6 C 76 % 1023,0 hPa 0,0 l/m 2 min 0 min 0,0 UV-I 330 W/m 7,7 km/h (2 Bft)
31.10.2013 11:38 12,2 C 10,6 C 76 % 1023,0 hPa 0,0 l/m 2 min 0 min 0,0 UV-I 267 W/m 15,4 km/h (3 Bft)
31.10.2013 11:40 12,3 C 11,1 C 77 % 1022,9 hPa 0,0 l/m 2 min 0 min 0,0 UV-I 350 W/m 7,7 km/h (2 Bft)
31.10.2013 11:42 12,3 C 11,1 C 77 % 1022,9 hPa 0,0 l/m 2 min 0 min 0,0 UV-I 276 W/m 20,6 km/h (4 Bft)
31.10.2013 11:44 12,4 C 11,1 C 76 % 1022,9 hPa 0,0 l/m 2 min 0 min 0,0 UV-I 302 W/m 12,9 km/h (3 Bft)
31.10.2013 11:46 12,4 C 11,1 C 75 % 1022,9 hPa 0,0 l/m 2 min 0 min 0,0 UV-I 288 W/m 12,9 km/h (3 Bft)
31.10.2013 11:48 12,3 C 11,1 C 75 % 1023,0 hPa 0,0 l/m 0 min 0 min 0,0 UV-I 186 W/m 15,4 km/h (3 Bft)
31.10.2013 11:50 12,3 C 11,1 C 75 % 1022,9 hPa 0,0 l/m 2 min 0 min 0,0 UV-I 248 W/m 25,7 km/h (4 Bft)
31.10.2013 11:52 12,2 C 11,1 C 75 % 1023,0 hPa 0,0 l/m 2 min 0 min 0,0 UV-I 320 W/m 18,0 km/h (3 Bft)
31.10.2013 11:54 12,2 C 11,1 C 75 % 1022,9 hPa 0,0 l/m 2 min 0 min 0,0 UV-I 248 W/m 20,6 km/h (4 Bft)
31.10.2013 11:56 12,2 C 11,1 C 75 % 1022,9 hPa 0,0 l/m 2 min 0 min 0,0 UV-I 248 W/m 18,0 km/h (3 Bft)
31.10.2013 11:58 12,2 C 11,1 C 75 % 1022,8 hPa 0,0 l/m 0 min 0 min 0,0 UV-I 220 W/m 18,0 km/h (3 Bft)
31.10.2013 12:00 12,2 C 11,1 C 75 % 1022,7 hPa 0,0 l/m 2 min 0 min 0,0 UV-I 308 W/m 10,3 km/h (2 Bft)
31.10.2013 12:02 12,3 C 11,1 C 75 % 1022,7 hPa 0,0 l/m 2 min 0 min 0,0 UV-I 353 W/m 12,9 km/h (3 Bft)
31.10.2013 12:06 12,6 C 11,7 C 74 % 1022,5 hPa 0,0 l/m 2 min 0 min 0,0 UV-I 394 W/m 23,2 km/h (4 Bft)
31.10.2013 12:08 12,7 C 11,7 C 72 % 1022,7 hPa 0,0 l/m 2 min 0 min 0,5 UV-I 299 W/m 23,2 km/h (4 Bft)
31.10.2013 12:10 12,7 C 11,7 C 73 % 1022,6 hPa 0,0 l/m 2 min 0 min 0,5 UV-I 304 W/m 25,7 km/h (4 Bft)
31.10.2013 12:12 12,7 C 11,1 C 72 % 1022,5 hPa 0,0 l/m 2 min 0 min 0,5 UV-I 301 W/m 12,9 km/h (3 Bft)
31.10.2013 12:14 12,7 C 11,7 C 73 % 1022,5 hPa 0,0 l/m 2 min 0 min 0,6 UV-I 288 W/m 15,4 km/h (3 Bft)
31.10.2013 12:16 12,7 C 11,7 C 72 % 1022,5 hPa 0,0 l/m 2 min 0 min 0,6 UV-I 323 W/m 12,9 km/h (3 Bft)
31.10.2013 12:18 12,8 C 11,7 C 72 % 1022,5 hPa 0,0 l/m 2 min 0 min 0,6 UV-I 325 W/m 18,0 km/h (3 Bft)
31.10.2013 12:20 12,9 C 11,7 C 72 % 1022,4 hPa 0,0 l/m 0 min 0 min 0,5 UV-I 220 W/m 5,1 km/h (1 Bft)
31.10.2013 12:22 12,9 C 11,7 C 73 % 1022,4 hPa 0,0 l/m 2 min 0 min 0,7 UV-I 258 W/m 0,0 km/h (0 Bft)
31.10.2013 12:24 13,1 C 11,7 C 72 % 1022,5 hPa 0,0 l/m 2 min 0 min 0,8 UV-I 450 W/m 10,3 km/h (2 Bft)
31.10.2013 12:26 13,2 C 11,7 C 71 % 1022,5 hPa 0,0 l/m 2 min 0 min 0,8 UV-I 445 W/m 18,0 km/h (3 Bft)
31.10.2013 12:28 13,3 C 12,2 C 71 % 1022,6 hPa 0,0 l/m 2 min 0 min 0,8 UV-I 392 W/m 18,0 km/h (3 Bft)
31.10.2013 12:30 13,3 C 12,2 C 70 % 1022,5 hPa 0,0 l/m 2 min 0 min 0,8 UV-I 425 W/m 23,2 km/h (4 Bft)
31.10.2013 12:32 13,3 C 11,7 C 71 % 1022,5 hPa 0,0 l/m 2 min 0 min 0,7 UV-I 359 W/m 7,7 km/h (2 Bft)
31.10.2013 12:34 13,3 C 12,2 C 71 % 1022,5 hPa 0,0 l/m 2 min 0 min 0,7 UV-I 295 W/m 10,3 km/h (2 Bft)
31.10.2013 12:36 13,4 C 12,2 C 70 % 1022,5 hPa 0,0 l/m 2 min 0 min 0,7 UV-I 362 W/m 12,9 km/h (3 Bft)
31.10.2013 12:38 13,4 C 12,2 C 70 % 1022,5 hPa 0,0 l/m 2 min 0 min 0,7 UV-I 323 W/m 12,9 km/h (3 Bft)
31.10.2013 12:40 13,4 C 12,2 C 70 % 1022,5 hPa 0,0 l/m 2 min 0 min 0,7 UV-I 380 W/m 15,4 km/h (3 Bft)
31.10.2013 12:42 13,4 C 12,2 C 70 % 1022,5 hPa 0,0 l/m 2 min 0 min 0,7 UV-I 383 W/m 15,4 km/h (3 Bft)
31.10.2013 12:44 13,4 C 12,2 C 70 % 1022,5 hPa 0,0 l/m 2 min 0 min 0,7 UV-I 385 W/m 15,4 km/h (3 Bft)
31.10.2013 12:46 13,5 C 12,2 C 70 % 1022,5 hPa 0,0 l/m 2 min 0 min 0,7 UV-I 350 W/m 20,6 km/h (4 Bft)
31.10.2013 12:48 13,4 C 12,2 C 69 % 1022,5 hPa 0,0 l/m 2 min 0 min 0,6 UV-I 269 W/m 7,7 km/h (2 Bft)
31.10.2013 12:50 13,4 C 12,2 C 69 % 1022,5 hPa 0,0 l/m 2 min 0 min 0,5 UV-I 276 W/m 12,9 km/h (3 Bft)
31.10.2013 12:52 13,4 C 12,2 C 70 % 1022,5 hPa 0,0 l/m 2 min 0 min 0,5 UV-I 255 W/m 2,6 km/h (1 Bft)
31.10.2013 12:54 13,3 C 12,2 C 69 % 1022,4 hPa 0,0 l/m 2 min 0 min 0,6 UV-I 297 W/m 18,0 km/h (3 Bft)
31.10.2013 12:56 13,4 C 12,2 C 70 % 1022,4 hPa 0,0 l/m 2 min 0 min 0,6 UV-I 318 W/m 0,0 km/h (0 Bft)
31.10.2013 12:58 13,5 C 12,2 C 70 % 1022,4 hPa 0,0 l/m 2 min 0 min 0,7 UV-I 332 W/m 15,4 km/h (3 Bft)
31.10.2013 13:00 13,6 C 12,2 C 70 % 1022,3 hPa 0,0 l/m 2 min 0 min 0,6 UV-I 327 W/m 10,3 km/h (2 Bft)
31.10.2013 13:02 13,7 C 12,2 C 68 % 1022,4 hPa 0,0 l/m 2 min 0 min 0,5 UV-I 227 W/m 15,4 km/h (3 Bft)
31.10.2013 13:04 13,6 C 12,2 C 68 % 1022,4 hPa 0,0 l/m 2 min 0 min 0,6 UV-I 315 W/m 15,4 km/h (3 Bft)
31.10.2013 13:06 13,6 C 12,2 C 68 % 1022,4 hPa 0,0 l/m 2 min 0 min 0,6 UV-I 343 W/m 18,0 km/h (3 Bft)
31.10.2013 13:08 13,6 C 12,2 C 69 % 1022,4 hPa 0,0 l/m 2 min 0 min 0,6 UV-I 348 W/m 10,3 km/h (2 Bft)
31.10.2013 13:10 13,6 C 12,2 C 69 % 1022,3 hPa 0,0 l/m 2 min 0 min 0,7 UV-I 392 W/m 15,4 km/h (3 Bft)
31.10.2013 13:12 13,6 C 12,2 C 67 % 1022,3 hPa 0,0 l/m 2 min 0 min 0,5 UV-I 295 W/m 20,6 km/h (4 Bft)
31.10.2013 13:14 13,6 C 12,2 C 68 % 1022,2 hPa 0,0 l/m 2 min 0 min 0,6 UV-I 306 W/m 15,4 km/h (3 Bft)
31.10.2013 13:16 13,6 C 12,2 C 68 % 1022,1 hPa 0,0 l/m 2 min 0 min 0,6 UV-I 327 W/m 10,3 km/h (2 Bft)
31.10.2013 13:18 13,7 C 12,2 C 69 % 1022,0 hPa 0,0 l/m 2 min 0 min 0,6 UV-I 364 W/m 15,4 km/h (3 Bft)
31.10.2013 13:20 13,8 C 12,2 C 68 % 1022,1 hPa 0,0 l/m 2 min 0 min 0,6 UV-I 369 W/m 18,0 km/h (3 Bft)
31.10.2013 13:22 13,9 C 12,2 C 69 % 1022,0 hPa 0,0 l/m 2 min 0 min 0,6 UV-I 348 W/m 10,3 km/h (2 Bft)
31.10.2013 13:24 14,1 C 12,2 C 68 % 1021,9 hPa 0,0 l/m 2 min 0 min 0,6 UV-I 341 W/m 12,9 km/h (3 Bft)
31.10.2013 13:26 14,2 C 12,2 C 67 % 1021,9 hPa 0,0 l/m 2 min 0 min 0,5 UV-I 318 W/m 12,9 km/h (3 Bft)
31.10.2013 13:28 14,2 C 12,2 C 67 % 1021,9 hPa 0,0 l/m 2 min 0 min 0,5 UV-I 315 W/m 0,0 km/h (0 Bft)
31.10.2013 13:30 14,2 C 12,2 C 67 % 1021,9 hPa 0,0 l/m 2 min 0 min 0,5 UV-I 304 W/m 12,9 km/h (3 Bft)
31.10.2013 13:32 14,2 C 12,2 C 65 % 1021,8 hPa 0,0 l/m 2 min 0 min 0,5 UV-I 294 W/m 12,9 km/h (3 Bft)
31.10.2013 13:34 14,1 C 12,2 C 64 % 1021,8 hPa 0,0 l/m 2 min 0 min 0,5 UV-I 288 W/m 10,3 km/h (2 Bft)
31.10.2013 13:36 14,0 C 12,2 C 65 % 1021,8 hPa 0,0 l/m 2 min 0 min 0,5 UV-I 320 W/m 12,9 km/h (3 Bft)
31.10.2013 13:38 13,9 C 12,2 C 65 % 1021,9 hPa 0,0 l/m 2 min 0 min 0,5 UV-I 329 W/m 12,9 km/h (3 Bft)
31.10.2013 13:40 13,9 C 12,2 C 65 % 1021,9 hPa 0,0 l/m 2 min 0 min 0,5 UV-I 292 W/m 18,0 km/h (3 Bft)
31.10.2013 13:42 13,9 C 12,2 C 66 % 1021,8 hPa 0,0 l/m 2 min 0 min 0,5 UV-I 364 W/m 18,0 km/h (3 Bft)
31.10.2013 13:44 13,9 C 12,2 C 65 % 1021,8 hPa 0,0 l/m 2 min 0 min 0,5 UV-I 323 W/m 18,0 km/h (3 Bft)
31.10.2013 13:46 13,9 C 12,2 C 66 % 1021,7 hPa 0,0 l/m 2 min 0 min 0,5 UV-I 338 W/m 15,4 km/h (3 Bft)
31.10.2013 13:48 13,9 C 12,2 C 64 % 1021,8 hPa 0,0 l/m 2 min 0 min 0,5 UV-I 357 W/m 33,5 km/h (5 Bft)
31.10.2013 13:50 13,9 C 12,2 C 64 % 1021,7 hPa 0,0 l/m 2 min 0 min 0,5 UV-I 373 W/m 15,4 km/h (3 Bft)
31.10.2013 13:52 13,9 C 12,8 C 65 % 1021,6 hPa 0,0 l/m 2 min 0 min 0,5 UV-I 381 W/m 15,4 km/h (3 Bft)
31.10.2013 13:54 14,0 C 12,8 C 65 % 1021,6 hPa 0,0 l/m 2 min 0 min 0,5 UV-I 383 W/m 30,9 km/h (5 Bft)
31.10.2013 13:56 14,1 C 12,8 C 65 % 1021,5 hPa 0,0 l/m 2 min 0 min 0,5 UV-I 366 W/m 23,2 km/h (4 Bft)
31.10.2013 13:58 14,1 C 12,8 C 64 % 1021,6 hPa 0,0 l/m 2 min 0 min 0,0 UV-I 262 W/m 30,9 km/h (5 Bft)
31.10.2013 14:00 14,0 C 12,2 C 64 % 1021,6 hPa 0,0 l/m 2 min 0 min 0,0 UV-I 241 W/m 15,4 km/h (3 Bft)
31.10.2013 14:02 13,9 C 12,2 C 66 % 1021,5 hPa 0,0 l/m 2 min 0 min 0,0 UV-I 260 W/m 20,6 km/h (4 Bft)
31.10.2013 14:04 13,8 C 12,2 C 66 % 1021,5 hPa 0,0 l/m 2 min 0 min 0,0 UV-I 220 W/m 12,9 km/h (3 Bft)
31.10.2013 14:06 13,8 C 12,2 C 66 % 1021,5 hPa 0,0 l/m 2 min 0 min 0,0 UV-I 329 W/m 15,4 km/h (3 Bft)
31.10.2013 14:08 13,9 C 12,8 C 65 % 1021,5 hPa 0,0 l/m 2 min 0 min 0,5 UV-I 355 W/m 20,6 km/h (4 Bft)
31.10.2013 14:10 14,0 C 12,8 C 65 % 1021,4 hPa 0,0 l/m 2 min 0 min 0,0 UV-I 376 W/m 10,3 km/h (2 Bft)
31.10.2013 14:12 14,2 C 12,8 C 66 % 1021,3 hPa 0,0 l/m 2 min 0 min 0,0 UV-I 364 W/m 7,7 km/h (2 Bft)
31.10.2013 14:14 14,2 C 12,8 C 64 % 1021,4 hPa 0,0 l/m 2 min 0 min 0,0 UV-I 292 W/m 18,0 km/h (3 Bft)
31.10.2013 14:16 14,2 C 12,8 C 65 % 1021,4 hPa 0,0 l/m 2 min 0 min 0,0 UV-I 313 W/m 7,7 km/h (2 Bft)
31.10.2013 14:18 14,2 C 12,8 C 66 % 1021,4 hPa 0,0 l/m 2 min 0 min 0,0 UV-I 287 W/m 12,9 km/h (3 Bft)
31.10.2013 14:20 14,2 C 12,8 C 65 % 1021,3 hPa 0,0 l/m 2 min 0 min 0,0 UV-I 304 W/m 12,9 km/h (3 Bft)
31.10.2013 14:22 14,2 C 12,8 C 65 % 1021,3 hPa 0,0 l/m 2 min 0 min 0,0 UV-I 276 W/m 20,6 km/h (4 Bft)
31.10.2013 14:24 14,2 C 12,8 C 65 % 1021,4 hPa 0,0 l/m 2 min 0 min 0,0 UV-I 271 W/m 12,9 km/h (3 Bft)
31.10.2013 14:26 14,2 C 12,2 C 65 % 1021,4 hPa 0,0 l/m 0 min 0 min 0,0 UV-I 167 W/m 12,9 km/h (3 Bft)
31.10.2013 14:28 14,0 C 12,2 C 65 % 1021,2 hPa 0,0 l/m 0 min 0 min 0,0 UV-I 144 W/m 10,3 km/h (2 Bft)
31.10.2013 14:30 13,9 C 12,2 C 65 % 1021,2 hPa 0,0 l/m 0 min 0 min 0,0 UV-I 121 W/m 15,4 km/h (3 Bft)
31.10.2013 14:32 13,8 C 12,2 C 66 % 1021,1 hPa 0,0 l/m 0 min 0 min 0,0 UV-I 174 W/m 7,7 km/h (2 Bft)
31.10.2013 14:34 13,7 C 12,2 C 67 % 1021,2 hPa 0,0 l/m 2 min 0 min 0,0 UV-I 269 W/m 5,1 km/h (1 Bft)
31.10.2013 14:36 13,8 C 12,2 C 67 % 1021,2 hPa 0,0 l/m 2 min 0 min 0,0 UV-I 260 W/m 10,3 km/h (2 Bft)
31.10.2013 14:38 13,9 C 12,2 C 67 % 1021,1 hPa 0,0 l/m 2 min 0 min 0,0 UV-I 251 W/m 10,3 km/h (2 Bft)
31.10.2013 14:40 14,0 C 12,2 C 66 % 1021,0 hPa 0,0 l/m 2 min 0 min 0,0 UV-I 234 W/m 18,0 km/h (3 Bft)
31.10.2013 14:42 14,0 C 12,2 C 66 % 1021,1 hPa 0,0 l/m 2 min 0 min 0,0 UV-I 192 W/m 12,9 km/h (3 Bft)
31.10.2013 14:44 13,9 C 12,2 C 67 % 1021,0 hPa 0,0 l/m 2 min 0 min 0,0 UV-I 209 W/m 7,7 km/h (2 Bft)
31.10.2013 14:46 13,9 C 12,2 C 67 % 1020,9 hPa 0,0 l/m 2 min 0 min 0,0 UV-I 213 W/m 18,0 km/h (3 Bft)
31.10.2013 14:48 13,9 C 12,2 C 68 % 1020,8 hPa 0,0 l/m 2 min 0 min 0,0 UV-I 260 W/m 0,0 km/h (0 Bft)
31.10.2013 14:50 14,1 C 12,2 C 67 % 1020,6 hPa 0,0 l/m 2 min 0 min 0,0 UV-I 241 W/m 12,9 km/h (3 Bft)
31.10.2013 14:52 14,1 C 12,2 C 67 % 1020,5 hPa 0,0 l/m 0 min 0 min 0,0 UV-I 139 W/m 7,7 km/h (2 Bft)
31.10.2013 14:54 14,0 C 12,2 C 67 % 1020,5 hPa 0,0 l/m 0 min 0 min 0,0 UV-I 91 W/m 15,4 km/h (3 Bft)
31.10.2013 14:56 13,8 C 12,2 C 66 % 1020,3 hPa 0,0 l/m 0 min 0 min 0,0 UV-I 116 W/m 23,2 km/h (4 Bft)
31.10.2013 14:58 13,7 C 11,7 C 66 % 1020,3 hPa 0,0 l/m 0 min 0 min 0,0 UV-I 97 W/m 7,7 km/h (2 Bft)
31.10.2013 15:00 13,6 C 11,7 C 67 % 1020,4 hPa 0,0 l/m 0 min 0 min 0,0 UV-I 91 W/m 15,4 km/h (3 Bft)
31.10.2013 15:02 13,6 C 11,7 C 66 % 1020,5 hPa 0,0 l/m 0 min 0 min 0,0 UV-I 91 W/m 18,0 km/h (3 Bft)
31.10.2013 15:04 13,5 C 11,7 C 66 % 1020,6 hPa 0,0 l/m 0 min 0 min 0,0 UV-I 93 W/m 12,9 km/h (3 Bft)
31.10.2013 15:06 13,4 C 11,7 C 67 % 1020,6 hPa 0,0 l/m 0 min 0 min 0,0 UV-I 111 W/m 10,3 km/h (2 Bft)
31.10.2013 15:08 13,4 C 11,7 C 67 % 1020,5 hPa 0,0 l/m 0 min 0 min 0,0 UV-I 132 W/m 15,4 km/h (3 Bft)
31.10.2013 15:10 13,4 C 11,7 C 66 % 1020,5 hPa 0,0 l/m 2 min 0 min 0,0 UV-I 178 W/m 20,6 km/h (4 Bft)
31.10.2013 15:12 13,4 C 11,7 C 66 % 1020,5 hPa 0,0 l/m 0 min 0 min 0,0 UV-I 135 W/m 12,9 km/h (3 Bft)
31.10.2013 15:14 13,4 C 12,2 C 66 % 1020,5 hPa 0,0 l/m 2 min 0 min 0,0 UV-I 151 W/m 18,0 km/h (3 Bft)
31.10.2013 15:16 13,4 C 12,2 C 65 % 1020,5 hPa 0,0 l/m 2 min 0 min 0,0 UV-I 163 W/m 30,9 km/h (5 Bft)
31.10.2013 15:18 13,4 C 12,2 C 65 % 1020,4 hPa 0,0 l/m 2 min 0 min 0,0 UV-I 178 W/m 15,4 km/h (3 Bft)
31.10.2013 15:20 13,5 C 12,2 C 65 % 1020,4 hPa 0,0 l/m 2 min 0 min 0,0 UV-I 186 W/m 15,4 km/h (3 Bft)
31.10.2013 15:22 13,5 C 12,2 C 66 % 1020,4 hPa 0,0 l/m 2 min 0 min 0,0 UV-I 183 W/m 10,3 km/h (2 Bft)
31.10.2013 15:24 13,6 C 12,2 C 66 % 1020,3 hPa 0,0 l/m 2 min 0 min 0,0 UV-I 200 W/m 18,0 km/h (3 Bft)
31.10.2013 15:26 13,6 C 12,2 C 66 % 1020,3 hPa 0,0 l/m 2 min 0 min 0,0 UV-I 193 W/m 25,7 km/h (4 Bft)
31.10.2013 15:28 13,6 C 11,7 C 66 % 1020,3 hPa 0,0 l/m 2 min 0 min 0,0 UV-I 163 W/m 12,9 km/h (3 Bft)
31.10.2013 15:30 13,6 C 11,7 C 66 % 1020,2 hPa 0,0 l/m 2 min 0 min 0,0 UV-I 148 W/m 0,0 km/h (0 Bft)
31.10.2013 15:32 13,6 C 11,7 C 66 % 1020,3 hPa 0,0 l/m 2 min 0 min 0,0 UV-I 153 W/m 12,9 km/h (3 Bft)
31.10.2013 15:34 13,5 C 11,7 C 67 % 1020,2 hPa 0,0 l/m 2 min 0 min 0,0 UV-I 155 W/m 10,3 km/h (2 Bft)
31.10.2013 15:36 13,5 C 11,7 C 67 % 1020,2 hPa 0,0 l/m 2 min 0 min 0,0 UV-I 116 W/m 2,6 km/h (1 Bft)
31.10.2013 15:38 13,4 C 11,7 C 68 % 1020,2 hPa 0,0 l/m 0 min 0 min 0,0 UV-I 97 W/m 0,0 km/h (0 Bft)
31.10.2013 15:40 13,3 C 11,7 C 69 % 1020,2 hPa 0,0 l/m 0 min 0 min 0,0 UV-I 90 W/m 18,0 km/h (3 Bft)
31.10.2013 15:42 13,3 C 11,7 C 70 % 1020,0 hPa 0,0 l/m 0 min 0 min 0,0 UV-I 79 W/m 0,0 km/h (0 Bft)
31.10.2013 15:44 13,2 C 11,7 C 70 % 1020,0 hPa 0,0 l/m 0 min 0 min 0,0 UV-I 76 W/m 15,4 km/h (3 Bft)
31.10.2013 15:46 13,1 C 11,1 C 71 % 1020,0 hPa 0,0 l/m 0 min 0 min 0,0 UV-I 58 W/m 12,9 km/h (3 Bft)
31.10.2013 15:48 13,1 C 11,1 C 71 % 1020,1 hPa 0,0 l/m 0 min 0 min 0,0 UV-I 54 W/m 12,9 km/h (3 Bft)
31.10.2013 15:50 13,1 C 11,1 C 71 % 1020,1 hPa 0,0 l/m 0 min 0 min 0,0 UV-I 53 W/m 0,0 km/h (0 Bft)
31.10.2013 15:52 13,0 C 11,1 C 72 % 1020,0 hPa 0,0 l/m 0 min 0 min 0,0 UV-I 51 W/m 0,0 km/h (0 Bft)
31.10.2013 15:54 12,9 C 11,1 C 72 % 1020,0 hPa 0,0 l/m 0 min 0 min 0,0 UV-I 51 W/m 0,0 km/h (0 Bft)
31.10.2013 15:56 12,8 C 11,1 C 72 % 1020,0 hPa 0,0 l/m 0 min 0 min 0,0 UV-I 51 W/m 5,1 km/h (1 Bft)
31.10.2013 15:58 12,8 C 11,1 C 72 % 1019,9 hPa 0,0 l/m 0 min 0 min 0,0 UV-I 49 W/m 0,0 km/h (0 Bft)
31.10.2013 16:00 12,7 C 11,1 C 72 % 1019,9 hPa 0,0 l/m 0 min 0 min 0,0 UV-I 49 W/m 12,9 km/h (3 Bft)
31.10.2013 16:02 12,7 C 11,1 C 72 % 1019,9 hPa 0,0 l/m 0 min 0 min 0,0 UV-I 47 W/m 12,9 km/h (3 Bft)
31.10.2013 16:04 12,7 C 11,1 C 72 % 1020,0 hPa 0,0 l/m 0 min 0 min 0,0 UV-I 46 W/m 7,7 km/h (2 Bft)
31.10.2013 16:06 12,7 C 11,1 C 73 % 1020,0 hPa 0,0 l/m 0 min 0 min 0,0 UV-I 44 W/m 7,7 km/h (2 Bft)
31.10.2013 16:08 12,6 C 10,6 C 73 % 1020,0 hPa 0,0 l/m 0 min 0 min 0,0 UV-I 42 W/m 5,1 km/h (1 Bft)
31.10.2013 16:10 12,6 C 10,6 C 73 % 1020,0 hPa 0,0 l/m 0 min 0 min 0,0 UV-I 42 W/m 7,7 km/h (2 Bft)
31.10.2013 16:12 12,6 C 10,6 C 73 % 1020,0 hPa 0,0 l/m 0 min 0 min 0,0 UV-I 40 W/m 15,4 km/h (3 Bft)
31.10.2013 16:14 12,5 C 10,6 C 73 % 1019,9 hPa 0,0 l/m 0 min 0 min 0,0 UV-I 39 W/m 7,7 km/h (2 Bft)
31.10.2013 16:16 12,5 C 10,6 C 73 % 1019,9 hPa 0,0 l/m 0 min 0 min 0,0 UV-I 37 W/m 7,7 km/h (2 Bft)
31.10.2013 16:18 12,5 C 10,6 C 73 % 1019,9 hPa 0,0 l/m 0 min 0 min 0,0 UV-I 33 W/m 7,7 km/h (2 Bft)
31.10.2013 16:20 12,4 C 10,6 C 73 % 1019,9 hPa 0,0 l/m 0 min 0 min 0,0 UV-I 33 W/m 0,0 km/h (0 Bft)
31.10.2013 16:22 12,4 C 10,6 C 73 % 1020,0 hPa 0,0 l/m 0 min 0 min 0,0 UV-I 32 W/m 7,7 km/h (2 Bft)
31.10.2013 16:24 12,4 C 10,6 C 73 % 1020,0 hPa 0,0 l/m 0 min 0 min 0,0 UV-I 28 W/m 0,0 km/h (0 Bft)
31.10.2013 16:26 12,4 C 10,6 C 73 % 1019,9 hPa 0,0 l/m 0 min 0 min 0,0 UV-I 26 W/m 0,0 km/h (0 Bft)
31.10.2013 16:28 12,3 C 10,6 C 73 % 1019,9 hPa 0,0 l/m 0 min 0 min 0,0 UV-I 25 W/m 7,7 km/h (2 Bft)
31.10.2013 16:30 12,3 C 10,6 C 73 % 1019,9 hPa 0,0 l/m 0 min 0 min 0,0 UV-I 23 W/m 7,7 km/h (2 Bft)
31.10.2013 16:32 12,3 C 10,6 C 73 % 1020,0 hPa 0,0 l/m 0 min 0 min 0,0 UV-I 21 W/m 5,1 km/h (1 Bft)
31.10.2013 16:34 12,3 C 10,6 C 73 % 1020,0 hPa 0,0 l/m 0 min 0 min 0,0 UV-I 18 W/m 0,0 km/h (0 Bft)
31.10.2013 16:36 12,2 C 10,6 C 73 % 1020,0 hPa 0,0 l/m 0 min 0 min 0,0 UV-I 18 W/m 5,1 km/h (1 Bft)
31.10.2013 16:38 12,2 C 10,6 C 73 % 1020,0 hPa 0,0 l/m 0 min 0 min 0,0 UV-I 16 W/m 12,9 km/h (3 Bft)
31.10.2013 16:40 12,2 C 10,6 C 73 % 1020,0 hPa 0,0 l/m 0 min 0 min 0,0 UV-I 14 W/m 2,6 km/h (1 Bft)
31.10.2013 16:42 12,2 C 10,6 C 73 % 1019,9 hPa 0,0 l/m 0 min 0 min 0,0 UV-I 12 W/m 2,6 km/h (1 Bft)
31.10.2013 16:44 12,1 C 10,6 C 73 % 1019,9 hPa 0,0 l/m 0 min 0 min 0,0 UV-I 12 W/m 0,0 km/h (0 Bft)
31.10.2013 16:46 12,1 C 10,0 C 73 % 1019,9 hPa 0,0 l/m 0 min 0 min 0,0 UV-I 11 W/m 0,0 km/h (0 Bft)
31.10.2013 16:48 12,1 C 10,0 C 73 % 1019,9 hPa 0,0 l/m 0 min 0 min 0,0 UV-I 11 W/m 10,3 km/h (2 Bft)
31.10.2013 16:50 12,0 C 10,0 C 74 % 1019,9 hPa 0,0 l/m 0 min 0 min 0,0 UV-I 9 W/m 5,1 km/h (1 Bft)
31.10.2013 16:52 12,0 C 10,0 C 74 % 1019,9 hPa 0,0 l/m 0 min 0 min 0,0 UV-I 9 W/m 7,7 km/h (2 Bft)
31.10.2013 16:54 12,0 C 10,0 C 74 % 1019,9 hPa 0,0 l/m 0 min 0 min 0,0 UV-I 7 W/m 10,3 km/h (2 Bft)
31.10.2013 16:56 12,0 C 10,6 C 73 % 1020,0 hPa 0,0 l/m 0 min 0 min 0,0 UV-I 7 W/m 5,1 km/h (1 Bft)
31.10.2013 16:58 12,0 C 10,0 C 74 % 1020,0 hPa 0,0 l/m 0 min 0 min 0,0 UV-I 5 W/m 5,1 km/h (1 Bft)
31.10.2013 17:00 11,9 C 10,0 C 74 % 1020,0 hPa 0,0 l/m 0 min 0 min 0,0 UV-I 5 W/m 7,7 km/h (2 Bft)
31.10.2013 17:02 11,9 C 10,0 C 74 % 1020,0 hPa 0,0 l/m 0 min 0 min 0,0 UV-I 5 W/m 0,0 km/h (0 Bft)
31.10.2013 17:04 11,9 C 10,0 C 74 % 1019,9 hPa 0,0 l/m 0 min 0 min 0,0 UV-I 0 W/m 7,7 km/h (2 Bft)
31.10.2013 17:06 11,8 C 10,0 C 75 % 1019,9 hPa 0,0 l/m 0 min 0 min 0,0 UV-I 0 W/m 0,0 km/h (0 Bft)
31.10.2013 17:08 11,8 C 10,0 C 75 % 1019,8 hPa 0,0 l/m 0 min 0 min 0,0 UV-I 0 W/m 0,0 km/h (0 Bft)
31.10.2013 17:10 11,7 C 10,0 C 75 % 1019,8 hPa 0,0 l/m 0 min 0 min 0,0 UV-I 0 W/m 2,6 km/h (1 Bft)
31.10.2013 17:12 11,6 C 10,0 C 76 % 1019,8 hPa 0,0 l/m 0 min 0 min 0,0 UV-I 0 W/m 2,6 km/h (1 Bft)
31.10.2013 17:14 11,6 C 10,0 C 76 % 1019,9 hPa 0,0 l/m 0 min 0 min 0,0 UV-I 0 W/m 10,3 km/h (2 Bft)
31.10.2013 17:16 11,5 C 9,4 C 76 % 1019,9 hPa 0,0 l/m 0 min 0 min 0,0 UV-I 0 W/m 0,0 km/h (0 Bft)
31.10.2013 17:18 11,5 C 9,4 C 76 % 1019,8 hPa 0,0 l/m 0 min 0 min 0,0 UV-I 0 W/m 2,6 km/h (1 Bft)
31.10.2013 17:20 11,5 C 9,4 C 76 % 1019,9 hPa 0,0 l/m 0 min 0 min 0,0 UV-I 0 W/m 0,0 km/h (0 Bft)
31.10.2013 17:22 11,4 C 9,4 C 76 % 1019,9 hPa 0,0 l/m 0 min 0 min 0,0 UV-I 0 W/m 5,1 km/h (1 Bft)
31.10.2013 17:24 11,4 C 10,0 C 76 % 1019,9 hPa 0,0 l/m 0 min 0 min 0,0 UV-I 0 W/m 15,4 km/h (3 Bft)
31.10.2013 17:26 11,5 C 10,0 C 76 % 1019,8 hPa 0,0 l/m 0 min 0 min 0,0 UV-I 0 W/m 10,3 km/h (2 Bft)
31.10.2013 17:28 11,5 C 10,0 C 76 % 1019,8 hPa 0,0 l/m 0 min 0 min 0,0 UV-I 0 W/m 5,1 km/h (1 Bft)
31.10.2013 17:30 11,5 C 9,4 C 76 % 1019,9 hPa 0,0 l/m 0 min 0 min 0,0 UV-I 0 W/m 0,0 km/h (0 Bft)
31.10.2013 17:32 11,4 C 9,4 C 76 % 1019,9 hPa 0,0 l/m 0 min 0 min 0,0 UV-I 0 W/m 7,7 km/h (2 Bft)
31.10.2013 17:34 11,4 C 9,4 C 76 % 1019,8 hPa 0,0 l/m 0 min 0 min 0,0 UV-I 0 W/m 7,7 km/h (2 Bft)
31.10.2013 17:36 11,4 C 9,4 C 76 % 1019,8 hPa 0,0 l/m 0 min 0 min 0,0 UV-I 0 W/m 2,6 km/h (1 Bft)
31.10.2013 17:38 11,4 C 9,4 C 76 % 1019,9 hPa 0,0 l/m 0 min 0 min 0,0 UV-I 0 W/m 5,1 km/h (1 Bft)
31.10.2013 17:40 11,4 C 9,4 C 76 % 1019,8 hPa 0,0 l/m 0 min 0 min 0,0 UV-I 0 W/m 2,6 km/h (1 Bft)
31.10.2013 17:42 11,4 C 9,4 C 76 % 1019,8 hPa 0,0 l/m 0 min 0 min 0,0 UV-I 0 W/m 0,0 km/h (0 Bft)
31.10.2013 17:44 11,3 C 9,4 C 77 % 1019,8 hPa 0,0 l/m 0 min 0 min 0,0 UV-I 0 W/m 7,7 km/h (2 Bft)
31.10.2013 17:46 11,3 C 9,4 C 76 % 1019,9 hPa 0,0 l/m 0 min 0 min 0,0 UV-I 0 W/m 15,4 km/h (3 Bft)
31.10.2013 17:48 11,3 C 9,4 C 76 % 1020,0 hPa 0,0 l/m 0 min 0 min 0,0 UV-I 0 W/m 7,7 km/h (2 Bft)
31.10.2013 17:50 11,3 C 9,4 C 76 % 1019,9 hPa 0,0 l/m 0 min 0 min 0,0 UV-I 0 W/m 2,6 km/h (1 Bft)
31.10.2013 17:52 11,3 C 9,4 C 76 % 1019,8 hPa 0,0 l/m 0 min 0 min 0,0 UV-I 0 W/m 0,0 km/h (0 Bft)
31.10.2013 17:54 11,2 C 9,4 C 77 % 1019,9 hPa 0,0 l/m 0 min 0 min 0,0 UV-I 0 W/m 0,0 km/h (0 Bft)
31.10.2013 17:56 11,2 C 9,4 C 77 % 1019,8 hPa 0,0 l/m 0 min 0 min 0,0 UV-I 0 W/m 5,1 km/h (1 Bft)
31.10.2013 17:58 11,2 C 9,4 C 77 % 1019,9 hPa 0,0 l/m 0 min 0 min 0,0 UV-I 0 W/m 0,0 km/h (0 Bft)
31.10.2013 18:00 11,2 C 9,4 C 77 % 1019,8 hPa 0,0 l/m 0 min 0 min 0,0 UV-I 0 W/m 0,0 km/h (0 Bft)
31.10.2013 18:02 11,2 C 9,4 C 79 % 1019,8 hPa 0,0 l/m 0 min 0 min 0,0 UV-I 0 W/m 0,0 km/h (0 Bft)
31.10.2013 18:06 11,1 C 9,4 C 77 % 1019,9 hPa 0,0 l/m 0 min 0 min 0,0 UV-I 0 W/m 7,7 km/h (2 Bft)
31.10.2013 18:08 11,1 C 9,4 C 77 % 1019,9 hPa 0,0 l/m 0 min 0 min 0,0 UV-I 0 W/m 0,0 km/h (0 Bft)
31.10.2013 18:10 11,1 C 9,4 C 77 % 1019,9 hPa 0,0 l/m 0 min 0 min 0,0 UV-I 0 W/m 10,3 km/h (2 Bft)
31.10.2013 18:12 11,1 C 9,4 C 77 % 1019,8 hPa 0,0 l/m 0 min 0 min 0,0 UV-I 0 W/m 7,7 km/h (2 Bft)
31.10.2013 18:14 11,1 C 9,4 C 77 % 1019,8 hPa 0,0 l/m 0 min 0 min 0,0 UV-I 0 W/m 2,6 km/h (1 Bft)
31.10.2013 18:16 11,1 C 9,4 C 77 % 1019,8 hPa 0,0 l/m 0 min 0 min 0,0 UV-I 0 W/m 10,3 km/h (2 Bft)
31.10.2013 18:18 11,1 C 9,4 C 77 % 1019,8 hPa 0,0 l/m 0 min 0 min 0,0 UV-I 0 W/m 10,3 km/h (2 Bft)
31.10.2013 18:20 11,1 C 9,4 C 77 % 1019,8 hPa 0,0 l/m 0 min 0 min 0,0 UV-I 0 W/m 7,7 km/h (2 Bft)
31.10.2013 18:22 11,1 C 9,4 C 77 % 1019,7 hPa 0,0 l/m 0 min 0 min 0,0 UV-I 0 W/m 7,7 km/h (2 Bft)
31.10.2013 18:24 11,1 C 9,4 C 77 % 1019,8 hPa 0,0 l/m 0 min 0 min 0,0 UV-I 0 W/m 5,1 km/h (1 Bft)
31.10.2013 18:26 11,1 C 9,4 C 77 % 1019,8 hPa 0,0 l/m 0 min 0 min 0,0 UV-I 0 W/m 10,3 km/h (2 Bft)
31.10.2013 18:28 11,0 C 9,4 C 77 % 1019,7 hPa 0,0 l/m 0 min 0 min 0,0 UV-I 0 W/m 10,3 km/h (2 Bft)
31.10.2013 18:30 11,0 C 9,4 C 77 % 1019,7 hPa 0,0 l/m 0 min 0 min 0,0 UV-I 0 W/m 12,9 km/h (3 Bft)
31.10.2013 18:32 10,9 C 9,4 C 77 % 1019,7 hPa 0,0 l/m 0 min 0 min 0,0 UV-I 0 W/m 0,0 km/h (0 Bft)
31.10.2013 18:34 10,9 C 8,9 C 77 % 1019,7 hPa 0,0 l/m 0 min 0 min 0,0 UV-I 0 W/m 7,7 km/h (2 Bft)
31.10.2013 18:36 10,9 C 8,9 C 77 % 1019,7 hPa 0,0 l/m 0 min 0 min 0,0 UV-I 0 W/m 5,1 km/h (1 Bft)
31.10.2013 18:38 10,8 C 8,9 C 77 % 1019,7 hPa 0,0 l/m 0 min 0 min 0,0 UV-I 0 W/m 18,0 km/h (3 Bft)
31.10.2013 18:40 10,8 C 8,9 C 77 % 1019,7 hPa 0,0 l/m 0 min 0 min 0,0 UV-I 0 W/m 2,6 km/h (1 Bft)
31.10.2013 18:42 10,7 C 8,9 C 77 % 1019,8 hPa 0,0 l/m 0 min 0 min 0,0 UV-I 0 W/m 0,0 km/h (0 Bft)
31.10.2013 18:44 10,7 C 8,9 C 77 % 1019,6 hPa 0,0 l/m 0 min 0 min 0,0 UV-I 0 W/m 7,7 km/h (2 Bft)
31.10.2013 18:46 10,7 C 8,9 C 77 % 1019,7 hPa 0,0 l/m 0 min 0 min 0,0 UV-I 0 W/m 10,3 km/h (2 Bft)
31.10.2013 18:48 10,7 C 8,9 C 77 % 1019,6 hPa 0,0 l/m 0 min 0 min 0,0 UV-I 0 W/m 0,0 km/h (0 Bft)
31.10.2013 18:50 10,7 C 8,9 C 77 % 1019,6 hPa 0,0 l/m 0 min 0 min 0,0 UV-I 0 W/m 10,3 km/h (2 Bft)
31.10.2013 18:52 10,7 C 8,9 C 77 % 1019,6 hPa 0,0 l/m 0 min 0 min 0,0 UV-I 0 W/m 7,7 km/h (2 Bft)
31.10.2013 18:54 10,7 C 8,9 C 77 % 1019,6 hPa 0,0 l/m 0 min 0 min 0,0 UV-I 0 W/m 2,6 km/h (1 Bft)
31.10.2013 18:56 10,7 C 8,9 C 77 % 1019,5 hPa 0,0 l/m 0 min 0 min 0,0 UV-I 0 W/m 15,4 km/h (3 Bft)
31.10.2013 18:58 10,7 C 8,9 C 77 % 1019,5 hPa 0,0 l/m 0 min 0 min 0,0 UV-I 0 W/m 10,3 km/h (2 Bft)
31.10.2013 19:00 10,7 C 9,4 C 77 % 1019,4 hPa 0,0 l/m 0 min 0 min 0,0 UV-I 0 W/m 10,3 km/h (2 Bft)
31.10.2013 19:02 10,8 C 9,4 C 77 % 1019,4 hPa 0,0 l/m 0 min 0 min 0,0 UV-I 0 W/m 12,9 km/h (3 Bft)
31.10.2013 19:04 10,8 C 9,4 C 76 % 1019,4 hPa 0,0 l/m 0 min 0 min 0,0 UV-I 0 W/m 10,3 km/h (2 Bft)
31.10.2013 19:06 10,8 C 9,4 C 76 % 1019,4 hPa 0,0 l/m 0 min 0 min 0,0 UV-I 0 W/m 12,9 km/h (3 Bft)
31.10.2013 19:08 10,7 C 8,9 C 76 % 1019,4 hPa 0,0 l/m 0 min 0 min 0,0 UV-I 0 W/m 15,4 km/h (3 Bft)
31.10.2013 19:10 10,7 C 8,9 C 76 % 1019,4 hPa 0,0 l/m 0 min 0 min 0,0 UV-I 0 W/m 12,9 km/h (3 Bft)
31.10.2013 19:12 10,7 C 8,9 C 76 % 1019,3 hPa 0,0 l/m 0 min 0 min 0,0 UV-I 0 W/m 0,0 km/h (0 Bft)
31.10.2013 19:14 10,7 C 8,9 C 76 % 1019,4 hPa 0,0 l/m 0 min 0 min 0,0 UV-I 0 W/m 12,9 km/h (3 Bft)
31.10.2013 19:16 10,7 C 8,9 C 76 % 1019,4 hPa 0,0 l/m 0 min 0 min 0,0 UV-I 0 W/m 5,1 km/h (1 Bft)
31.10.2013 19:18 10,7 C 8,9 C 76 % 1019,4 hPa 0,0 l/m 0 min 0 min 0,0 UV-I 0 W/m 7,7 km/h (2 Bft)
31.10.2013 19:20 10,7 C 8,9 C 76 % 1019,4 hPa 0,0 l/m 0 min 0 min 0,0 UV-I 0 W/m 5,1 km/h (1 Bft)
31.10.2013 19:22 10,7 C 8,9 C 76 % 1019,4 hPa 0,0 l/m 0 min 0 min 0,0 UV-I 0 W/m 10,3 km/h (2 Bft)
31.10.2013 19:24 10,6 C 8,9 C 76 % 1019,4 hPa 0,0 l/m 0 min 0 min 0,0 UV-I 0 W/m 5,1 km/h (1 Bft)
31.10.2013 19:26 10,6 C 8,9 C 76 % 1019,4 hPa 0,0 l/m 0 min 0 min 0,0 UV-I 0 W/m 5,1 km/h (1 Bft)
31.10.2013 19:28 10,6 C 8,9 C 76 % 1019,3 hPa 0,0 l/m 0 min 0 min 0,0 UV-I 0 W/m 2,6 km/h (1 Bft)
31.10.2013 19:30 10,5 C 8,3 C 76 % 1019,3 hPa 0,0 l/m 0 min 0 min 0,0 UV-I 0 W/m 10,3 km/h (2 Bft)
31.10.2013 19:32 10,5 C 8,9 C 76 % 1019,2 hPa 0,0 l/m 0 min 0 min 0,0 UV-I 0 W/m 15,4 km/h (3 Bft)
31.10.2013 19:34 10,4 C 8,9 C 77 % 1019,3 hPa 0,0 l/m 0 min 0 min 0,0 UV-I 0 W/m 18,0 km/h (3 Bft)
31.10.2013 19:36 10,4 C 8,9 C 77 % 1019,3 hPa 0,0 l/m 0 min 0 min 0,0 UV-I 0 W/m 5,1 km/h (1 Bft)
31.10.2013 19:38 10,4 C 8,3 C 77 % 1019,3 hPa 0,0 l/m 0 min 0 min 0,0 UV-I 0 W/m 7,7 km/h (2 Bft)
31.10.2013 19:40 10,3 C 8,3 C 77 % 1019,3 hPa 0,0 l/m 0 min 0 min 0,0 UV-I 0 W/m 7,7 km/h (2 Bft)
31.10.2013 19:42 10,3 C 8,3 C 77 % 1019,3 hPa 0,0 l/m 0 min 0 min 0,0 UV-I 0 W/m 15,4 km/h (3 Bft)
31.10.2013 19:44 10,3 C 8,3 C 77 % 1019,3 hPa 0,0 l/m 0 min 0 min 0,0 UV-I 0 W/m 2,6 km/h (1 Bft)
31.10.2013 19:46 10,3 C 8,3 C 77 % 1019,3 hPa 0,0 l/m 0 min 0 min 0,0 UV-I 0 W/m 0,0 km/h (0 Bft)
31.10.2013 19:48 10,3 C 8,9 C 77 % 1019,3 hPa 0,0 l/m 0 min 0 min 0,0 UV-I 0 W/m 2,6 km/h (1 Bft)
31.10.2013 19:50 10,3 C 8,9 C 77 % 1019,3 hPa 0,0 l/m 0 min 0 min 0,0 UV-I 0 W/m 0,0 km/h (0 Bft)
31.10.2013 19:52 10,3 C 8,9 C 77 % 1019,2 hPa 0,0 l/m 0 min 0 min 0,0 UV-I 0 W/m 15,4 km/h (3 Bft)
31.10.2013 19:54 10,4 C 8,9 C 77 % 1019,2 hPa 0,0 l/m 0 min 0 min 0,0 UV-I 0 W/m 10,3 km/h (2 Bft)
31.10.2013 19:56 10,4 C 8,9 C 77 % 1019,3 hPa 0,0 l/m 0 min 0 min 0,0 UV-I 0 W/m 10,3 km/h (2 Bft)
31.10.2013 19:58 10,5 C 8,9 C 77 % 1019,1 hPa 0,0 l/m 0 min 0 min 0,0 UV-I 0 W/m 7,7 km/h (2 Bft)
31.10.2013 20:00 10,5 C 8,9 C 77 % 1019,2 hPa 0,0 l/m 0 min 0 min 0,0 UV-I 0 W/m 10,3 km/h (2 Bft)
31.10.2013 20:02 10,5 C 8,9 C 77 % 1019,2 hPa 0,0 l/m 0 min 0 min 0,0 UV-I 0 W/m 2,6 km/h (1 Bft)
31.10.2013 20:04 10,5 C 8,9 C 77 % 1019,2 hPa 0,0 l/m 0 min 0 min 0,0 UV-I 0 W/m 10,3 km/h (2 Bft)
31.10.2013 20:06 10,5 C 9,4 C 77 % 1019,2 hPa 0,0 l/m 0 min 0 min 0,0 UV-I 0 W/m 7,7 km/h (2 Bft)
31.10.2013 20:08 10,6 C 9,4 C 77 % 1019,2 hPa 0,0 l/m 0 min 0 min 0,0 UV-I 0 W/m 7,7 km/h (2 Bft)
31.10.2013 20:10 10,6 C 9,4 C 77 % 1019,1 hPa 0,0 l/m 0 min 0 min 0,0 UV-I 0 W/m 12,9 km/h (3 Bft)
31.10.2013 20:12 10,6 C 9,4 C 77 % 1019,2 hPa 0,0 l/m 0 min 0 min 0,0 UV-I 0 W/m 5,1 km/h (1 Bft)
31.10.2013 20:14 10,6 C 9,4 C 77 % 1019,0 hPa 0,0 l/m 0 min 0 min 0,0 UV-I 0 W/m 5,1 km/h (1 Bft)
31.10.2013 20:16 10,6 C 9,4 C 77 % 1019,0 hPa 0,0 l/m 0 min 0 min 0,0 UV-I 0 W/m 5,1 km/h (1 Bft)
31.10.2013 20:18 10,6 C 9,4 C 77 % 1019,0 hPa 0,0 l/m 0 min 0 min 0,0 UV-I 0 W/m 7,7 km/h (2 Bft)
31.10.2013 20:20 10,6 C 9,4 C 76 % 1019,0 hPa 0,0 l/m 0 min 0 min 0,0 UV-I 0 W/m 5,1 km/h (1 Bft)
31.10.2013 20:22 10,7 C 9,4 C 76 % 1019,0 hPa 0,0 l/m 0 min 0 min 0,0 UV-I 0 W/m 10,3 km/h (2 Bft)
31.10.2013 20:24 10,7 C 9,4 C 76 % 1019,0 hPa 0,0 l/m 0 min 0 min 0,0 UV-I 0 W/m 7,7 km/h (2 Bft)
31.10.2013 20:26 10,7 C 9,4 C 76 % 1019,0 hPa 0,0 l/m 0 min 0 min 0,0 UV-I 0 W/m 18,0 km/h (3 Bft)
31.10.2013 20:28 10,8 C 9,4 C 75 % 1018,9 hPa 0,0 l/m 0 min 0 min 0,0 UV-I 0 W/m 12,9 km/h (3 Bft)
31.10.2013 20:30 10,8 C 9,4 C 75 % 1018,8 hPa 0,0 l/m 0 min 0 min 0,0 UV-I 0 W/m 10,3 km/h (2 Bft)
31.10.2013 20:32 10,8 C 9,4 C 75 % 1018,8 hPa 0,0 l/m 0 min 0 min 0,0 UV-I 0 W/m 12,9 km/h (3 Bft)
31.10.2013 20:34 10,8 C 9,4 C 75 % 1018,8 hPa 0,0 l/m 0 min 0 min 0,0 UV-I 0 W/m 10,3 km/h (2 Bft)
31.10.2013 20:36 10,8 C 9,4 C 75 % 1018,8 hPa 0,0 l/m 0 min 0 min 0,0 UV-I 0 W/m 5,1 km/h (1 Bft)
31.10.2013 20:38 10,8 C 9,4 C 75 % 1018,9 hPa 0,0 l/m 0 min 0 min 0,0 UV-I 0 W/m 0,0 km/h (0 Bft)
31.10.2013 20:40 10,8 C 9,4 C 75 % 1018,9 hPa 0,0 l/m 0 min 0 min 0,0 UV-I 0 W/m 5,1 km/h (1 Bft)
31.10.2013 20:42 10,8 C 9,4 C 75 % 1018,9 hPa 0,0 l/m 0 min 0 min 0,0 UV-I 0 W/m 20,6 km/h (4 Bft)
31.10.2013 20:44 10,8 C 9,4 C 75 % 1018,9 hPa 0,0 l/m 0 min 0 min 0,0 UV-I 0 W/m 10,3 km/h (2 Bft)
31.10.2013 20:46 10,8 C 9,4 C 75 % 1018,9 hPa 0,0 l/m 0 min 0 min 0,0 UV-I 0 W/m 10,3 km/h (2 Bft)
31.10.2013 20:48 10,8 C 9,4 C 75 % 1018,8 hPa 0,0 l/m 0 min 0 min 0,0 UV-I 0 W/m 5,1 km/h (1 Bft)
31.10.2013 20:50 10,8 C 9,4 C 75 % 1018,8 hPa 0,0 l/m 0 min 0 min 0,0 UV-I 0 W/m 7,7 km/h (2 Bft)
31.10.2013 20:52 10,8 C 9,4 C 75 % 1018,7 hPa 0,0 l/m 0 min 0 min 0,0 UV-I 0 W/m 10,3 km/h (2 Bft)
31.10.2013 20:54 10,8 C 9,4 C 75 % 1018,8 hPa 0,0 l/m 0 min 0 min 0,0 UV-I 0 W/m 10,3 km/h (2 Bft)
31.10.2013 20:56 10,8 C 9,4 C 75 % 1018,9 hPa 0,0 l/m 0 min 0 min 0,0 UV-I 0 W/m 12,9 km/h (3 Bft)
31.10.2013 20:58 10,8 C 9,4 C 75 % 1018,8 hPa 0,0 l/m 0 min 0 min 0,0 UV-I 0 W/m 15,4 km/h (3 Bft)
31.10.2013 21:00 10,8 C 9,4 C 75 % 1018,9 hPa 0,0 l/m 0 min 0 min 0,0 UV-I 0 W/m 18,0 km/h (3 Bft)
31.10.2013 21:02 10,9 C 9,4 C 75 % 1018,7 hPa 0,0 l/m 0 min 0 min 0,0 UV-I 0 W/m 12,9 km/h (3 Bft)
31.10.2013 21:04 10,9 C 9,4 C 75 % 1018,8 hPa 0,0 l/m 0 min 0 min 0,0 UV-I 0 W/m 15,4 km/h (3 Bft)
31.10.2013 21:06 10,9 C 9,4 C 75 % 1018,9 hPa 0,0 l/m 0 min 0 min 0,0 UV-I 0 W/m 12,9 km/h (3 Bft)
31.10.2013 21:08 10,9 C 9,4 C 75 % 1018,8 hPa 0,0 l/m 0 min 0 min 0,0 UV-I 0 W/m 7,7 km/h (2 Bft)
31.10.2013 21:10 10,9 C 9,4 C 75 % 1018,9 hPa 0,0 l/m 0 min 0 min 0,0 UV-I 0 W/m 15,4 km/h (3 Bft)
31.10.2013 21:12 10,9 C 9,4 C 76 % 1018,9 hPa 0,0 l/m 0 min 0 min 0,0 UV-I 0 W/m 15,4 km/h (3 Bft)
31.10.2013 21:14 10,9 C 9,4 C 76 % 1018,9 hPa 0,0 l/m 0 min 0 min 0,0 UV-I 0 W/m 12,9 km/h (3 Bft)
31.10.2013 21:16 10,9 C 9,4 C 76 % 1018,9 hPa 0,0 l/m 0 min 0 min 0,0 UV-I 0 W/m 0,0 km/h (0 Bft)
31.10.2013 21:18 10,9 C 9,4 C 76 % 1018,8 hPa 0,0 l/m 0 min 0 min 0,0 UV-I 0 W/m 10,3 km/h (2 Bft)
31.10.2013 21:20 10,9 C 9,4 C 76 % 1018,8 hPa 0,0 l/m 0 min 0 min 0,0 UV-I 0 W/m 12,9 km/h (3 Bft)
31.10.2013 21:22 10,9 C 9,4 C 76 % 1018,9 hPa 0,0 l/m 0 min 0 min 0,0 UV-I 0 W/m 10,3 km/h (2 Bft)
31.10.2013 21:24 10,9 C 9,4 C 76 % 1019,0 hPa 0,0 l/m 0 min 0 min 0,0 UV-I 0 W/m 18,0 km/h (3 Bft)
31.10.2013 21:26 10,9 C 9,4 C 76 % 1018,9 hPa 0,0 l/m 0 min 0 min 0,0 UV-I 0 W/m 18,0 km/h (3 Bft)
31.10.2013 21:28 10,9 C 9,4 C 76 % 1019,0 hPa 0,0 l/m 0 min 0 min 0,0 UV-I 0 W/m 7,7 km/h (2 Bft)
31.10.2013 21:30 10,9 C 9,4 C 76 % 1019,0 hPa 0,0 l/m 0 min 0 min 0,0 UV-I 0 W/m 0,0 km/h (0 Bft)
31.10.2013 21:32 10,9 C 9,4 C 76 % 1018,9 hPa 0,0 l/m 0 min 0 min 0,0 UV-I 0 W/m 15,4 km/h (3 Bft)
31.10.2013 21:34 10,9 C 9,4 C 76 % 1019,0 hPa 0,0 l/m 0 min 0 min 0,0 UV-I 0 W/m 18,0 km/h (3 Bft)
31.10.2013 21:36 10,9 C 9,4 C 76 % 1018,9 hPa 0,0 l/m 0 min 0 min 0,0 UV-I 0 W/m 7,7 km/h (2 Bft)
31.10.2013 21:38 11,0 C 9,4 C 77 % 1018,9 hPa 0,0 l/m 0 min 0 min 0,0 UV-I 0 W/m 0,0 km/h (0 Bft)
31.10.2013 21:40 11,0 C 9,4 C 77 % 1018,9 hPa 0,0 l/m 0 min 0 min 0,0 UV-I 0 W/m 7,7 km/h (2 Bft)
31.10.2013 21:42 11,0 C 9,4 C 77 % 1018,9 hPa 0,0 l/m 0 min 0 min 0,0 UV-I 0 W/m 5,1 km/h (1 Bft)
31.10.2013 21:44 11,0 C 9,4 C 77 % 1018,9 hPa 0,0 l/m 0 min 0 min 0,0 UV-I 0 W/m 5,1 km/h (1 Bft)
31.10.2013 21:46 11,0 C 9,4 C 77 % 1018,9 hPa 0,0 l/m 0 min 0 min 0,0 UV-I 0 W/m 0,0 km/h (0 Bft)
31.10.2013 21:48 11,0 C 9,4 C 77 % 1019,0 hPa 0,0 l/m 0 min 0 min 0,0 UV-I 0 W/m 7,7 km/h (2 Bft)
31.10.2013 21:50 11,0 C 9,4 C 77 % 1018,9 hPa 0,0 l/m 0 min 0 min 0,0 UV-I 0 W/m 12,9 km/h (3 Bft)
31.10.2013 21:52 11,0 C 9,4 C 77 % 1018,9 hPa 0,0 l/m 0 min 0 min 0,0 UV-I 0 W/m 10,3 km/h (2 Bft)
31.10.2013 21:54 11,0 C 9,4 C 78 % 1018,9 hPa 0,0 l/m 0 min 0 min 0,0 UV-I 0 W/m 18,0 km/h (3 Bft)
31.10.2013 21:56 11,1 C 10,0 C 78 % 1018,8 hPa 0,0 l/m 0 min 0 min 0,0 UV-I 0 W/m 12,9 km/h (3 Bft)
31.10.2013 21:58 11,1 C 10,0 C 78 % 1018,9 hPa 0,0 l/m 0 min 0 min 0,0 UV-I 0 W/m 10,3 km/h (2 Bft)
31.10.2013 22:00 11,1 C 9,4 C 78 % 1018,8 hPa 0,0 l/m 0 min 0 min 0,0 UV-I 0 W/m 7,7 km/h (2 Bft)
31.10.2013 22:02 11,1 C 9,4 C 78 % 1018,8 hPa 0,0 l/m 0 min 0 min 0,0 UV-I 0 W/m 12,9 km/h (3 Bft)
31.10.2013 22:04 11,1 C 10,0 C 78 % 1018,8 hPa 0,0 l/m 0 min 0 min 0,0 UV-I 0 W/m 10,3 km/h (2 Bft)
31.10.2013 22:06 11,1 C 10,0 C 78 % 1018,8 hPa 0,0 l/m 0 min 0 min 0,0 UV-I 0 W/m 7,7 km/h (2 Bft)
31.10.2013 22:08 11,1 C 10,0 C 78 % 1018,8 hPa 0,0 l/m 0 min 0 min 0,0 UV-I 0 W/m 10,3 km/h (2 Bft)
31.10.2013 22:10 11,1 C 10,0 C 78 % 1018,8 hPa 0,0 l/m 0 min 0 min 0,0 UV-I 0 W/m 10,3 km/h (2 Bft)
31.10.2013 22:12 11,2 C 10,0 C 79 % 1018,8 hPa 0,0 l/m 0 min 0 min 0,0 UV-I 0 W/m 10,3 km/h (2 Bft)
31.10.2013 22:14 11,2 C 10,0 C 79 % 1018,8 hPa 0,0 l/m 0 min 0 min 0,0 UV-I 0 W/m 12,9 km/h (3 Bft)
31.10.2013 22:16 11,2 C 10,0 C 79 % 1018,8 hPa 0,0 l/m 0 min 0 min 0,0 UV-I 0 W/m 18,0 km/h (3 Bft)
31.10.2013 22:18 11,2 C 10,0 C 79 % 1018,8 hPa 0,0 l/m 0 min 0 min 0,0 UV-I 0 W/m 15,4 km/h (3 Bft)
31.10.2013 22:20 11,2 C 10,0 C 79 % 1018,8 hPa 0,0 l/m 0 min 0 min 0,0 UV-I 0 W/m 5,1 km/h (1 Bft)
31.10.2013 22:22 11,2 C 10,0 C 79 % 1018,8 hPa 0,0 l/m 0 min 0 min 0,0 UV-I 0 W/m 0,0 km/h (0 Bft)
31.10.2013 22:24 11,2 C 10,0 C 79 % 1018,8 hPa 0,0 l/m 0 min 0 min 0,0 UV-I 0 W/m 7,7 km/h (2 Bft)
31.10.2013 22:26 11,2 C 10,0 C 79 % 1018,8 hPa 0,0 l/m 0 min 0 min 0,0 UV-I 0 W/m 12,9 km/h (3 Bft)
31.10.2013 22:28 11,2 C 10,0 C 79 % 1018,7 hPa 0,0 l/m 0 min 0 min 0,0 UV-I 0 W/m 18,0 km/h (3 Bft)
31.10.2013 22:30 11,2 C 10,0 C 79 % 1018,7 hPa 0,0 l/m 0 min 0 min 0,0 UV-I 0 W/m 7,7 km/h (2 Bft)
31.10.2013 22:32 11,2 C 10,0 C 79 % 1018,8 hPa 0,0 l/m 0 min 0 min 0,0 UV-I 0 W/m 23,2 km/h (4 Bft)
31.10.2013 22:34 11,3 C 10,0 C 79 % 1018,8 hPa 0,0 l/m 0 min 0 min 0,0 UV-I 0 W/m 12,9 km/h (3 Bft)
31.10.2013 22:36 11,3 C 10,0 C 79 % 1018,7 hPa 0,0 l/m 0 min 0 min 0,0 UV-I 0 W/m 23,2 km/h (4 Bft)
31.10.2013 22:38 11,3 C 10,0 C 79 % 1018,7 hPa 0,0 l/m 0 min 0 min 0,0 UV-I 0 W/m 25,7 km/h (4 Bft)
31.10.2013 22:40 11,3 C 10,0 C 79 % 1018,8 hPa 0,0 l/m 0 min 0 min 0,0 UV-I 0 W/m 18,0 km/h (3 Bft)
31.10.2013 22:42 11,3 C 10,0 C 79 % 1018,8 hPa 0,0 l/m 0 min 0 min 0,0 UV-I 0 W/m 7,7 km/h (2 Bft)
31.10.2013 22:44 11,3 C 10,0 C 79 % 1018,8 hPa 0,0 l/m 0 min 0 min 0,0 UV-I 0 W/m 12,9 km/h (3 Bft)
31.10.2013 22:46 11,3 C 10,0 C 79 % 1018,9 hPa 0,0 l/m 0 min 0 min 0,0 UV-I 0 W/m 20,6 km/h (4 Bft)
31.10.2013 22:48 11,3 C 10,0 C 79 % 1018,9 hPa 0,0 l/m 0 min 0 min 0,0 UV-I 0 W/m 20,6 km/h (4 Bft)
31.10.2013 22:50 11,3 C 10,0 C 79 % 1019,0 hPa 0,0 l/m 0 min 0 min 0,0 UV-I 0 W/m 20,6 km/h (4 Bft)
31.10.2013 22:52 11,3 C 10,0 C 79 % 1018,8 hPa 0,0 l/m 0 min 0 min 0,0 UV-I 0 W/m 12,9 km/h (3 Bft)
31.10.2013 22:54 11,3 C 10,0 C 79 % 1018,8 hPa 0,0 l/m 0 min 0 min 0,0 UV-I 0 W/m 20,6 km/h (4 Bft)
31.10.2013 22:56 11,3 C 10,0 C 79 % 1018,8 hPa 0,0 l/m 0 min 0 min 0,0 UV-I 0 W/m 5,1 km/h (1 Bft)
31.10.2013 22:58 11,3 C 10,0 C 79 % 1018,8 hPa 0,0 l/m 0 min 0 min 0,0 UV-I 0 W/m 15,4 km/h (3 Bft)
31.10.2013 23:00 11,3 C 10,0 C 79 % 1018,8 hPa 0,0 l/m 0 min 0 min 0,0 UV-I 0 W/m 20,6 km/h (4 Bft)
31.10.2013 23:02 11,3 C 10,0 C 79 % 1018,8 hPa 0,0 l/m 0 min 0 min 0,0 UV-I 0 W/m 10,3 km/h (2 Bft)
31.10.2013 23:04 11,3 C 10,0 C 79 % 1018,9 hPa 0,0 l/m 0 min 0 min 0,0 UV-I 0 W/m 20,6 km/h (4 Bft)
31.10.2013 23:06 11,3 C 10,0 C 79 % 1018,8 hPa 0,0 l/m 0 min 0 min 0,0 UV-I 0 W/m 20,6 km/h (4 Bft)
31.10.2013 23:08 11,3 C 10,0 C 79 % 1018,9 hPa 0,0 l/m 0 min 0 min 0,0 UV-I 0 W/m 23,2 km/h (4 Bft)
31.10.2013 23:10 11,3 C 10,0 C 79 % 1018,8 hPa 0,0 l/m 0 min 0 min 0,0 UV-I 0 W/m 10,3 km/h (2 Bft)
31.10.2013 23:12 11,3 C 10,0 C 79 % 1018,8 hPa 0,0 l/m 0 min 0 min 0,0 UV-I 0 W/m 2,6 km/h (1 Bft)
31.10.2013 23:14 11,2 C 10,0 C 79 % 1018,9 hPa 0,0 l/m 0 min 0 min 0,0 UV-I 0 W/m 20,6 km/h (4 Bft)
31.10.2013 23:16 11,2 C 10,0 C 79 % 1018,8 hPa 0,0 l/m 0 min 0 min 0,0 UV-I 0 W/m 10,3 km/h (2 Bft)
31.10.2013 23:18 11,2 C 10,0 C 79 % 1018,8 hPa 0,0 l/m 0 min 0 min 0,0 UV-I 0 W/m 18,0 km/h (3 Bft)
31.10.2013 23:20 11,2 C 10,0 C 79 % 1018,9 hPa 0,0 l/m 0 min 0 min 0,0 UV-I 0 W/m 12,9 km/h (3 Bft)
31.10.2013 23:22 11,2 C 10,0 C 79 % 1018,9 hPa 0,0 l/m 0 min 0 min 0,0 UV-I 0 W/m 18,0 km/h (3 Bft)
31.10.2013 23:24 11,2 C 10,0 C 79 % 1018,9 hPa 0,0 l/m 0 min 0 min 0,0 UV-I 0 W/m 7,7 km/h (2 Bft)
31.10.2013 23:26 11,2 C 10,0 C 79 % 1018,9 hPa 0,0 l/m 0 min 0 min 0,0 UV-I 0 W/m 10,3 km/h (2 Bft)
31.10.2013 23:28 11,2 C 10,0 C 80 % 1018,9 hPa 0,0 l/m 0 min 0 min 0,0 UV-I 0 W/m 10,3 km/h (2 Bft)
31.10.2013 23:30 11,2 C 10,0 C 80 % 1018,9 hPa 0,0 l/m 0 min 0 min 0,0 UV-I 0 W/m 15,4 km/h (3 Bft)
31.10.2013 23:32 11,2 C 10,0 C 80 % 1018,8 hPa 0,0 l/m 0 min 0 min 0,0 UV-I 0 W/m 15,4 km/h (3 Bft)
31.10.2013 23:34 11,2 C 10,0 C 80 % 1018,9 hPa 0,0 l/m 0 min 0 min 0,0 UV-I 0 W/m 7,7 km/h (2 Bft)
31.10.2013 23:36 11,2 C 10,0 C 80 % 1018,8 hPa 0,0 l/m 0 min 0 min 0,0 UV-I 0 W/m 10,3 km/h (2 Bft)
31.10.2013 23:38 11,1 C 10,0 C 80 % 1018,9 hPa 0,0 l/m 0 min 0 min 0,0 UV-I 0 W/m 20,6 km/h (4 Bft)
31.10.2013 23:40 11,1 C 10,0 C 80 % 1018,9 hPa 0,0 l/m 0 min 0 min 0,0 UV-I 0 W/m 12,9 km/h (3 Bft)
31.10.2013 23:42 11,1 C 10,0 C 80 % 1018,9 hPa 0,0 l/m 0 min 0 min 0,0 UV-I 0 W/m 12,9 km/h (3 Bft)
31.10.2013 23:44 11,1 C 10,0 C 80 % 1018,8 hPa 0,0 l/m 0 min 0 min 0,0 UV-I 0 W/m 10,3 km/h (2 Bft)
31.10.2013 23:46 11,1 C 9,4 C 80 % 1018,9 hPa 0,0 l/m 0 min 0 min 0,0 UV-I 0 W/m 5,1 km/h (1 Bft)
31.10.2013 23:48 11,1 C 9,4 C 80 % 1018,8 hPa 0,0 l/m 0 min 0 min 0,0 UV-I 0 W/m 7,7 km/h (2 Bft)
31.10.2013 23:50 11,1 C 9,4 C 80 % 1018,8 hPa 0,0 l/m 0 min 0 min 0,0 UV-I 0 W/m 10,3 km/h (2 Bft)
31.10.2013 23:52 11,1 C 9,4 C 80 % 1018,7 hPa 0,0 l/m 0 min 0 min 0,0 UV-I 0 W/m 5,1 km/h (1 Bft)
31.10.2013 23:54 11,1 C 9,4 C 80 % 1018,9 hPa 0,0 l/m 0 min 0 min 0,0 UV-I 0 W/m 5,1 km/h (1 Bft)
31.10.2013 23:56 11,1 C 9,4 C 80 % 1018,8 hPa 0,0 l/m 0 min 0 min 0,0 UV-I 0 W/m 10,3 km/h (2 Bft)
31.10.2013 23:58 11,1 C 9,4 C 81 % 1018,8 hPa 0,0 l/m 0 min 0 min 0,0 UV-I 0 W/m 7,7 km/h (2 Bft)
_ Min-Zeit 06:32 04:30 13:34 20:52 - - - - - 00:00
Minimum _ 3,3 C 2,2 C 64 % 1018,7 hPa - - - - - 0,0 km/h (0 Bft)
_ Max-Zeit 13:26 13:52 08:32 00:00 00:00 08:48 00:00 12:24 12:24 13:48
Maximum _ 14,2 C 12,8 C 100 % 1025,5 hPa 0,0 l/m 2 min 0 min 0,8 UV-I 450 W/m 33,5 km/h
S (5 Bft)
Durchschnitt _ 8,8 C 7,4 C 83 % 1022,2 hPa #0,0 l/m #5:50 h #0 min. 0,6 UV-I 186 W/m 8,4 km/h (2 Bft)
© 2013 W. Hausmann